Observation data for Fort Chadbourne on 01/20/2019      Previous  Date       Current Mesonet Observations  Soil Data  Daily Summary Page  Observations in Plain Language
KCH1 200600Z 16001KT 00/M03 A3034 RMK A01 T00021034  RH  077%=      5-min Rain = 0
KCH1 200601Z 16002KT 00/M03 A3034 RMK A01 T00011034  RH  077%=      5-min Rain = 0
KCH1 200602Z 15001KT 00/M03 A3034 RMK A01 T00011034  RH  077%=      5-min Rain = 0
KCH1 200603Z 15001KT 00/M03 A3034 RMK A01 T00011034  RH  077%=      5-min Rain = 0
KCH1 200604Z 13001KT 00/M03 A3034 RMK A01 T00011034  RH  077%=      5-min Rain = 0
KCH1 200605Z 12001KT 00/M04 A3033 RMK A01 T00011035  RH  077%=      5-min Rain = 0
KCH1 200606Z 13002KT 00/M04 A3033 RMK A01 T00011036  RH  076%=      5-min Rain = 0
KCH1 200607Z 15002KT 00/M04 A3033 RMK A01 T00021036  RH  076%=      5-min Rain = 0
KCH1 200608Z 17002KT 00/M04 A3033 RMK A01 T00031035  RH  075%=      5-min Rain = 0
KCH1 200609Z 20003KT 00/M04 A3034 RMK A01 T00031035  RH  076%=      5-min Rain = 0
KCH1 200610Z 20002KT 00/04 A3034 RMK A01 T00000-35  RH  077%=      5-min Rain = 0
KCH1 200611Z 19001KT M00/M03 A3034 RMK A01 T10031034  RH  079%=      5-min Rain = 0
KCH1 200612Z 16001KT M00/M03 A3034 RMK A01 T10041033  RH  081%=      5-min Rain = 0
KCH1 200613Z 14001KT M01/M03 A3034 RMK A01 T10061032  RH  083%=      5-min Rain = 0
KCH1 200614Z 14001KT M01/M03 A3034 RMK A01 T10081032  RH  084%=      5-min Rain = 0
KCH1 200615Z 14002KT M01/M03 A3034 RMK A01 T10081032  RH  084%=      5-min Rain = 0
KCH1 200616Z 13002KT M01/M03 A3034 RMK A01 T10081032  RH  084%=      5-min Rain = 0
KCH1 200617Z 13002KT M01/M03 A3034 RMK A01 T10081032  RH  084%=      5-min Rain = 0
KCH1 200618Z 14002KT M01/M03 A3035 RMK A01 T10081033  RH  083%=      5-min Rain = 0
KCH1 200619Z 15002KT M01/M03 A3035 RMK A01 T10071032  RH  083%=      5-min Rain = 0
KCH1 200620Z 17002KT M01/M03 A3035 RMK A01 T10071033  RH  083%=      5-min Rain = 0
KCH1 200621Z 17002KT M01/M03 A3035 RMK A01 T10061034  RH  082%=      5-min Rain = 0
KCH1 200622Z 17002KT M01/M03 A3035 RMK A01 T10051034  RH  081%=      5-min Rain = 0
KCH1 200623Z 17002KT M00/M03 A3035 RMK A01 T10041034  RH  080%=      5-min Rain = 0
KCH1 200624Z 17001KT M00/M04 A3034 RMK A01 T10031035  RH  079%=      5-min Rain = 0
KCH1 200625Z 17001KT M00/M04 A3034 RMK A01 T10021035  RH  078%=      5-min Rain = 0
KCH1 200626Z 00000KT M00/M03 A3034 RMK A01 T10021034  RH  079%=      5-min Rain = 0
KCH1 200627Z 00000KT M00/M03 A3034 RMK A01 T10041034  RH  080%=      5-min Rain = 0
KCH1 200628Z 00000KT M00/M03 A3034 RMK A01 T10041034  RH  080%=      5-min Rain = 0
KCH1 200629Z 00000KT M00/M03 A3034 RMK A01 T10041034  RH  080%=      5-min Rain = 0
KCH1 200630Z 00000KT M00/M04 A3034 RMK A01 T10041035  RH  079%=      5-min Rain = 0
KCH1 200631Z 00000KT M00/M04 A3034 RMK A01 T10031036  RH  079%=      5-min Rain = 0
KCH1 200632Z 02001KT M00/M04 A3034 RMK A01 T10031036  RH  078%=      5-min Rain = 0
KCH1 200633Z 00000KT M00/M04 A3034 RMK A01 T10041035  RH  079%=      5-min Rain = 0
KCH1 200634Z 00000KT M01/M04 A3034 RMK A01 T10051036  RH  080%=      5-min Rain = 0
KCH1 200635Z 00000KT M01/M04 A3034 RMK A01 T10051036  RH  080%=      5-min Rain = 0
KCH1 200636Z 00000KT M01/M04 A3035 RMK A01 T10051036  RH  079%=      5-min Rain = 0
KCH1 200637Z 00000KT M00/M04 A3035 RMK A01 T10041036  RH  079%=      5-min Rain = 0
KCH1 200638Z 00000KT M00/M04 A3035 RMK A01 T10031036  RH  078%=      5-min Rain = 0
KCH1 200639Z 00000KT M00/M04 A3034 RMK A01 T10031037  RH  078%=      5-min Rain = 0
KCH1 200640Z 00000KT M00/M04 A3034 RMK A01 T10031038  RH  077%=      5-min Rain = 0
KCH1 200641Z 00000KT M00/M04 A3034 RMK A01 T10021039  RH  076%=      5-min Rain = 0
KCH1 200642Z 00000KT M00/M04 A3034 RMK A01 T10021038  RH  076%=      5-min Rain = 0
KCH1 200643Z 00000KT M00/M04 A3034 RMK A01 T10021038  RH  077%=      5-min Rain = 0
KCH1 200644Z 00000KT M00/M04 A3034 RMK A01 T10021038  RH  077%=      5-min Rain = 0
KCH1 200645Z 00000KT M00/M04 A3034 RMK A01 T10031039  RH  077%=      5-min Rain = 0
KCH1 200646Z 00000KT M01/M04 A3034 RMK A01 T10061041  RH  077%=      5-min Rain = 0
KCH1 200647Z 00000KT M01/M04 A3034 RMK A01 T10081041  RH  078%=      5-min Rain = 0
KCH1 200648Z 00000KT M01/M04 A3034 RMK A01 T10081040  RH  079%=      5-min Rain = 0
KCH1 200649Z 00000KT M01/M04 A3034 RMK A01 T10091040  RH  079%=      5-min Rain = 0
KCH1 200650Z 00000KT M01/M04 A3034 RMK A01 T10091039  RH  080%=      5-min Rain = 0
KCH1 200651Z 00000KT M01/M04 A3034 RMK A01 T10091039  RH  080%=      5-min Rain = 0
KCH1 200652Z 00000KT M01/M04 A3034 RMK A01 T10091039  RH  080%=      5-min Rain = 0
KCH1 200653Z 00000KT M01/M04 A3034 RMK A01 T10101039  RH  081%=      5-min Rain = 0
KCH1 200654Z 00000KT M01/M04 A3034 RMK A01 T10101039  RH  081%=      5-min Rain = 0
KCH1 200655Z 00000KT M01/M04 A3035 RMK A01 T10101037  RH  082%=      5-min Rain = 0
KCH1 200656Z 31000KT M01/M04 A3035 RMK A01 T10101037  RH  082%=      5-min Rain = 0
KCH1 200657Z 31001KT M01/M04 A3035 RMK A01 T10091036  RH  082%=      5-min Rain = 0
KCH1 200658Z 31001KT M01/M04 A3035 RMK A01 T10081036  RH  082%=      5-min Rain = 0
KCH1 200659Z 31001KT M01/M04 A3035 RMK A01 T10081036  RH  081%=      5-min Rain = 0
KCH1 200700Z 31001KT M01/M04 A3036 RMK A01 T10081036  RH  081%=      5-min Rain = 0
KCH1 200701Z 31001KT M01/M04 A3036 RMK A01 T10081036  RH  081%=      5-min Rain = 0
KCH1 200702Z 31001KT M01/M04 A3036 RMK A01 T10081036  RH  082%=      5-min Rain = 0
KCH1 200703Z 29001KT M01/M04 A3036 RMK A01 T10091035  RH  082%=      5-min Rain = 0
KCH1 200704Z 25002KT M01/M03 A3036 RMK A01 T10101034  RH  084%=      5-min Rain = 0
KCH1 200705Z 25002KT M01/M03 A3036 RMK A01 T10111033  RH  084%=      5-min Rain = 0
KCH1 200706Z 25001KT M01/M03 A3036 RMK A01 T10121034  RH  085%=      5-min Rain = 0
KCH1 200707Z 25001KT M01/M03 A3036 RMK A01 T10131034  RH  085%=      5-min Rain = 0
KCH1 200708Z 25001KT M02/M04 A3036 RMK A01 T10161038  RH  085%=      5-min Rain = 0
KCH1 200709Z 25000KT M02/M04 A3036 RMK A01 T10171038  RH  086%=      5-min Rain = 0
KCH1 200710Z 25000KT M02/M04 A3035 RMK A01 T10171035  RH  087%=      5-min Rain = 0
KCH1 200711Z 21001KT M02/M03 A3035 RMK A01 T10161033  RH  088%=      5-min Rain = 0
KCH1 200712Z 21002KT M02/M03 A3035 RMK A01 T10151032  RH  088%=      5-min Rain = 0
KCH1 200713Z 21003KT M01/M03 A3035 RMK A01 T10141033  RH  087%=      5-min Rain = 0
KCH1 200714Z 23003KT M01/M03 A3036 RMK A01 T10141034  RH  086%=      5-min Rain = 0
KCH1 200715Z 24003KT M02/M04 A3036 RMK A01 T10161038  RH  085%=      5-min Rain = 0
KCH1 200716Z 25002KT M02/M04 A3036 RMK A01 T10171039  RH  085%=      5-min Rain = 0
KCH1 200717Z 24002KT M02/M04 A3036 RMK A01 T10181039  RH  086%=      5-min Rain = 0
KCH1 200718Z 24002KT M02/M04 A3036 RMK A01 T10191037  RH  087%=      5-min Rain = 0
KCH1 200719Z 24002KT M02/M03 A3036 RMK A01 T10181034  RH  089%=      5-min Rain = 0
KCH1 200720Z 24003KT M02/M03 A3036 RMK A01 T10181033  RH  089%=      5-min Rain = 0
KCH1 200721Z 24003KT M02/M03 A3036 RMK A01 T10181033  RH  090%=      5-min Rain = 0
KCH1 200722Z 23004KT M02/M03 A3036 RMK A01 T10181032  RH  090%=      5-min Rain = 0
KCH1 200723Z 22005KT M02/M03 A3036 RMK A01 T10181032  RH  090%=      5-min Rain = 0
KCH1 200724Z 22005KT M02/M03 A3036 RMK A01 T10181032  RH  090%=      5-min Rain = 0
KCH1 200725Z 22005KT M02/M03 A3036 RMK A01 T10181032  RH  090%=      5-min Rain = 0
KCH1 200726Z 22005KT M02/M03 A3035 RMK A01 T10171032  RH  090%=      5-min Rain = 0
KCH1 200727Z 21004KT M02/M03 A3035 RMK A01 T10181033  RH  090%=      5-min Rain = 0
KCH1 200728Z 21004KT M02/M03 A3035 RMK A01 T10181032  RH  090%=      5-min Rain = 0
KCH1 200729Z 21004KT M02/M03 A3035 RMK A01 T10181032  RH  090%=      5-min Rain = 0
KCH1 200730Z 21004KT M02/M03 A3035 RMK A01 T10181032  RH  090%=      5-min Rain = 0
KCH1 200731Z 21004KT M02/M03 A3035 RMK A01 T10181033  RH  090%=      5-min Rain = 0
KCH1 200732Z 21003KT M02/M03 A3035 RMK A01 T10171033  RH  089%=      5-min Rain = 0
KCH1 200733Z 20002KT M02/M03 A3034 RMK A01 T10161034  RH  088%=      5-min Rain = 0
KCH1 200734Z 20001KT M02/M04 A3035 RMK A01 T10151035  RH  086%=      5-min Rain = 0
KCH1 200735Z 17001KT M02/M04 A3035 RMK A01 T10161037  RH  086%=      5-min Rain = 0
KCH1 200736Z 17001KT M02/M04 A3035 RMK A01 T10191040  RH  086%=      5-min Rain = 0
KCH1 200737Z 18002KT M02/M04 A3035 RMK A01 T10201039  RH  087%=      5-min Rain = 0
KCH1 200738Z 20003KT M02/M04 A3035 RMK A01 T10191038  RH  087%=      5-min Rain = 0
KCH1 200739Z 21003KT M02/M04 A3035 RMK A01 T10171037  RH  086%=      5-min Rain = 0
KCH1 200740Z 20002KT M02/M04 A3035 RMK A01 T10171038  RH  086%=      5-min Rain = 0
KCH1 200741Z 05003KT M02/M04 A3036 RMK A01 T10211043  RH  085%=      5-min Rain = 0
KCH1 200742Z 03001KT M02/M05 A3036 RMK A01 T10241045  RH  086%=      5-min Rain = 0
KCH1 200743Z 20001KT M03/M04 A3036 RMK A01 T10251043  RH  088%=      5-min Rain = 0
KCH1 200744Z 19001KT M02/M04 A3036 RMK A01 T10241041  RH  089%=      5-min Rain = 0
KCH1 200745Z 05001KT M02/M04 A3036 RMK A01 T10231040  RH  088%=      5-min Rain = 0
KCH1 200746Z 06001KT M02/M04 A3036 RMK A01 T10231041  RH  087%=      5-min Rain = 0
KCH1 200747Z 09000KT M02/M04 A3036 RMK A01 T10231041  RH  087%=      5-min Rain = 0
KCH1 200748Z 00000KT M02/M04 A3036 RMK A01 T10221039  RH  089%=      5-min Rain = 0
KCH1 200749Z 00000KT M02/M04 A3036 RMK A01 T10211037  RH  089%=      5-min Rain = 0
KCH1 200750Z 00000KT M02/M04 A3036 RMK A01 T10211036  RH  089%=      5-min Rain = 0
KCH1 200751Z 00000KT M02/M04 A3037 RMK A01 T10191036  RH  088%=      5-min Rain = 0
KCH1 200752Z 06000KT M02/M04 A3037 RMK A01 T10181038  RH  087%=      5-min Rain = 0
KCH1 200753Z 06003KT M02/M04 A3037 RMK A01 T10171038  RH  086%=      5-min Rain = 0
KCH1 200754Z 07002KT M02/M04 A3036 RMK A01 T10211042  RH  085%=      5-min Rain = 0
KCH1 200755Z 06002KT M02/M04 A3036 RMK A01 T10241043  RH  086%=      5-min Rain = 0
KCH1 200756Z 05001KT M03/M04 A3036 RMK A01 T10251043  RH  087%=      5-min Rain = 0
KCH1 200757Z 06002KT M03/M04 A3037 RMK A01 T10261043  RH  088%=      5-min Rain = 0
KCH1 200758Z 06003KT M03/M04 A3037 RMK A01 T10271043  RH  089%=      5-min Rain = 0
KCH1 200759Z 07002KT M03/M04 A3036 RMK A01 T10281043  RH  090%=      5-min Rain = 0
KCH1 200800Z 07002KT M03/M04 A3036 RMK A01 T10281042  RH  090%=      5-min Rain = 0
KCH1 200801Z 08002KT M03/M04 A3036 RMK A01 T10291042  RH  091%=      5-min Rain = 0
KCH1 200802Z 12001KT M03/M04 A3036 RMK A01 T10291041  RH  091%=      5-min Rain = 0
KCH1 200803Z 08002KT M03/M04 A3035 RMK A01 T10281039  RH  092%=      5-min Rain = 0
KCH1 200804Z 06004KT M03/M04 A3035 RMK A01 T10271038  RH  092%=      5-min Rain = 0
KCH1 200805Z 05005KT M03/M04 A3035 RMK A01 T10261038  RH  091%=      5-min Rain = 0
KCH1 200806Z 05004KT M03/M04 A3035 RMK A01 T10261040  RH  091%=      5-min Rain = 0
KCH1 200807Z 05004KT M03/M04 A3035 RMK A01 T10281042  RH  090%=      5-min Rain = 0
KCH1 200808Z 05003KT M03/M04 A3035 RMK A01 T10291043  RH  090%=      5-min Rain = 0
KCH1 200809Z 04003KT M03/M04 A3035 RMK A01 T10301043  RH  091%=      5-min Rain = 0
KCH1 200810Z 04003KT M03/M04 A3035 RMK A01 T10301043  RH  091%=      5-min Rain = 0
KCH1 200811Z 05002KT M03/M04 A3035 RMK A01 T10301043  RH  091%=      5-min Rain = 0
KCH1 200812Z 06001KT M03/M04 A3035 RMK A01 T10301042  RH  091%=      5-min Rain = 0
KCH1 200813Z 08000KT M03/M04 A3035 RMK A01 T10301042  RH  091%=      5-min Rain = 0
KCH1 200814Z 08002KT M03/M04 A3036 RMK A01 T10301042  RH  091%=      5-min Rain = 0
KCH1 200815Z 07002KT M03/M04 A3036 RMK A01 T10301042  RH  091%=      5-min Rain = 0
KCH1 200816Z 06003KT M03/M04 A3036 RMK A01 T10301043  RH  091%=      5-min Rain = 0
KCH1 200817Z 07002KT M03/M04 A3036 RMK A01 T10301043  RH  091%=      5-min Rain = 0
KCH1 200818Z 07002KT M03/M04 A3036 RMK A01 T10291042  RH  091%=      5-min Rain = 0
KCH1 200819Z 06003KT M03/M04 A3036 RMK A01 T10291042  RH  091%=      5-min Rain = 0
KCH1 200820Z 06003KT M03/M04 A3036 RMK A01 T10281042  RH  090%=      5-min Rain = 0
KCH1 200821Z 05002KT M03/M04 A3036 RMK A01 T10291043  RH  090%=      5-min Rain = 0
KCH1 200822Z 05002KT M03/M04 A3035 RMK A01 T10301044  RH  090%=      5-min Rain = 0
KCH1 200823Z 06003KT M03/M05 A3035 RMK A01 T10301045  RH  090%=      5-min Rain = 0
KCH1 200824Z 06003KT M03/M04 A3035 RMK A01 T10301044  RH  090%=      5-min Rain = 0
KCH1 200825Z 06003KT M03/M04 A3035 RMK A01 T10301043  RH  091%=      5-min Rain = 0
KCH1 200826Z 06003KT M03/M04 A3035 RMK A01 T10311044  RH  091%=      5-min Rain = 0
KCH1 200827Z 05003KT M03/M04 A3035 RMK A01 T10311044  RH  091%=      5-min Rain = 0
KCH1 200828Z 07002KT M03/M04 A3035 RMK A01 T10311044  RH  091%=      5-min Rain = 0
KCH1 200829Z 08002KT M03/M04 A3035 RMK A01 T10311043  RH  091%=      5-min Rain = 0
KCH1 200830Z 08002KT M03/M04 A3035 RMK A01 T10311042  RH  092%=      5-min Rain = 0
KCH1 200831Z 07002KT M03/M04 A3035 RMK A01 T10311042  RH  092%=      5-min Rain = 0
KCH1 200832Z 06002KT M03/M04 A3036 RMK A01 T10301042  RH  092%=      5-min Rain = 0
KCH1 200833Z 06003KT M03/M04 A3036 RMK A01 T10301041  RH  092%=      5-min Rain = 0
KCH1 200834Z 07003KT M03/M04 A3035 RMK A01 T10301041  RH  092%=      5-min Rain = 0
KCH1 200835Z 07003KT M03/M04 A3035 RMK A01 T10291041  RH  092%=      5-min Rain = 0
KCH1 200836Z 06002KT M03/M04 A3035 RMK A01 T10291041  RH  092%=      5-min Rain = 0
KCH1 200837Z 06002KT M03/M04 A3035 RMK A01 T10291041  RH  091%=      5-min Rain = 0
KCH1 200838Z 06002KT M03/M04 A3035 RMK A01 T10291041  RH  091%=      5-min Rain = 0
KCH1 200839Z 06002KT M03/M04 A3035 RMK A01 T10291041  RH  091%=      5-min Rain = 0
KCH1 200840Z 06002KT M03/M04 A3035 RMK A01 T10291041  RH  091%=      5-min Rain = 0
KCH1 200841Z 07002KT M03/M04 A3035 RMK A01 T10291041  RH  091%=      5-min Rain = 0
KCH1 200842Z 08002KT M03/M04 A3035 RMK A01 T10291041  RH  091%=      5-min Rain = 0
KCH1 200843Z 09002KT M03/M04 A3035 RMK A01 T10291042  RH  091%=      5-min Rain = 0
KCH1 200844Z 08002KT M03/M04 A3035 RMK A01 T10291041  RH  091%=      5-min Rain = 0
KCH1 200845Z 08002KT M03/M04 A3035 RMK A01 T10291041  RH  092%=      5-min Rain = 0
KCH1 200846Z 08002KT M03/M04 A3035 RMK A01 T10291040  RH  092%=      5-min Rain = 0
KCH1 200847Z 08002KT M03/M04 A3035 RMK A01 T10281040  RH  092%=      5-min Rain = 0
KCH1 200848Z 08001KT M03/M04 A3035 RMK A01 T10291041  RH  091%=      5-min Rain = 0
KCH1 200849Z 08002KT M03/M04 A3035 RMK A01 T10291041  RH  091%=      5-min Rain = 0
KCH1 200850Z 08002KT M03/M04 A3035 RMK A01 T10281041  RH  091%=      5-min Rain = 0
KCH1 200851Z 07002KT M03/M04 A3035 RMK A01 T10281041  RH  091%=      5-min Rain = 0
KCH1 200852Z 07002KT M03/M04 A3035 RMK A01 T10291041  RH  091%=      5-min Rain = 0
KCH1 200853Z 07001KT M03/M04 A3035 RMK A01 T10291041  RH  091%=      5-min Rain = 0
KCH1 200854Z 07000KT M03/M04 A3035 RMK A01 T10281041  RH  091%=      5-min Rain = 0
KCH1 200855Z 07001KT M03/M04 A3035 RMK A01 T10291042  RH  091%=      5-min Rain = 0
KCH1 200856Z 06003KT M03/M04 A3035 RMK A01 T10301043  RH  091%=      5-min Rain = 0
KCH1 200857Z 06003KT M03/M04 A3035 RMK A01 T10301042  RH  091%=      5-min Rain = 0
KCH1 200858Z 07002KT M03/M04 A3035 RMK A01 T10301042  RH  092%=      5-min Rain = 0
KCH1 200859Z 08001KT M03/M04 A3035 RMK A01 T10301041  RH  092%=      5-min Rain = 0
KCH1 200900Z 08002KT M03/M04 A3035 RMK A01 T10291040  RH  092%=      5-min Rain = 0
KCH1 200901Z 07002KT M03/M04 A3035 RMK A01 T10301041  RH  092%=      5-min Rain = 0
KCH1 200902Z 06003KT M03/M04 A3035 RMK A01 T10301041  RH  092%=      5-min Rain = 0
KCH1 200903Z 05003KT M03/M04 A3035 RMK A01 T10301041  RH  092%=      5-min Rain = 0
KCH1 200904Z 06002KT M03/M04 A3035 RMK A01 T10301042  RH  092%=      5-min Rain = 0
KCH1 200905Z 06003KT M03/M04 A3035 RMK A01 T10311042  RH  092%=      5-min Rain = 0
KCH1 200906Z 06003KT M03/M04 A3035 RMK A01 T10311042  RH  092%=      5-min Rain = 0
KCH1 200907Z 06003KT M03/M04 A3035 RMK A01 T10311042  RH  092%=      5-min Rain = 0
KCH1 200908Z 06003KT M03/M04 A3035 RMK A01 T10321042  RH  092%=      5-min Rain = 0
KCH1 200909Z 06003KT M03/M04 A3035 RMK A01 T10331043  RH  092%=      5-min Rain = 0
KCH1 200910Z 06003KT M03/M04 A3035 RMK A01 T10331043  RH  092%=      5-min Rain = 0
KCH1 200911Z 06003KT M03/M04 A3035 RMK A01 T10331043  RH  093%=      5-min Rain = 0
KCH1 200912Z 05003KT M03/M04 A3035 RMK A01 T10331043  RH  093%=      5-min Rain = 0
KCH1 200913Z 05003KT M03/M04 A3035 RMK A01 T10331043  RH  093%=      5-min Rain = 0
KCH1 200914Z 06002KT M03/M04 A3035 RMK A01 T10331043  RH  093%=      5-min Rain = 0
KCH1 200915Z 08001KT M03/M04 A3035 RMK A01 T10331043  RH  093%=      5-min Rain = 0
KCH1 200916Z 09001KT M03/M04 A3035 RMK A01 T10341044  RH  092%=      5-min Rain = 0
KCH1 200917Z 10001KT M03/M05 A3035 RMK A01 T10341045  RH  092%=      5-min Rain = 0
KCH1 200918Z 11001KT M04/M05 A3035 RMK A01 T10351045  RH  093%=      5-min Rain = 0
KCH1 200919Z 11001KT M04/M05 A3035 RMK A01 T10351045  RH  093%=      5-min Rain = 0
KCH1 200920Z 11000KT M04/M05 A3035 RMK A01 T10351045  RH  093%=      5-min Rain = 0
KCH1 200921Z 10000KT M04/M04 A3035 RMK A01 T10351044  RH  093%=      5-min Rain = 0
KCH1 200922Z 08001KT M03/M04 A3035 RMK A01 T10341044  RH  093%=      5-min Rain = 0
KCH1 200923Z 08001KT M03/M04 A3035 RMK A01 T10341043  RH  093%=      5-min Rain = 0
KCH1 200924Z 08001KT M03/M04 A3034 RMK A01 T10331041  RH  094%=      5-min Rain = 0
KCH1 200925Z 08001KT M03/M04 A3034 RMK A01 T10321040  RH  094%=      5-min Rain = 0
KCH1 200926Z 00000KT M03/M04 A3034 RMK A01 T10311040  RH  094%=      5-min Rain = 0
KCH1 200927Z 20000KT M03/M04 A3035 RMK A01 T10311040  RH  093%=      5-min Rain = 0
KCH1 200928Z 21001KT M03/M04 A3035 RMK A01 T10311041  RH  093%=      5-min Rain = 0
KCH1 200929Z 19001KT M03/M04 A3035 RMK A01 T10311041  RH  093%=      5-min Rain = 0
KCH1 200930Z 19001KT M03/M04 A3035 RMK A01 T10311041  RH  092%=      5-min Rain = 0
KCH1 200931Z 00000KT M03/M04 A3035 RMK A01 T10311041  RH  092%=      5-min Rain = 0
KCH1 200932Z 00000KT M03/M04 A3035 RMK A01 T10311042  RH  092%=      5-min Rain = 0
KCH1 200933Z 00000KT M03/M04 A3035 RMK A01 T10321043  RH  092%=      5-min Rain = 0
KCH1 200934Z 00000KT M03/M04 A3035 RMK A01 T10321042  RH  093%=      5-min Rain = 0
KCH1 200935Z 22001KT M03/M04 A3035 RMK A01 T10331043  RH  093%=      5-min Rain = 0
KCH1 200936Z 23003KT M03/M04 A3035 RMK A01 T10331042  RH  093%=      5-min Rain = 0
KCH1 200937Z 24003KT M03/M04 A3035 RMK A01 T10331042  RH  093%=      5-min Rain = 0
KCH1 200938Z 23003KT M03/M04 A3035 RMK A01 T10331042  RH  094%=      5-min Rain = 0
KCH1 200939Z 22003KT M03/M04 A3035 RMK A01 T10331042  RH  094%=      5-min Rain = 0
KCH1 200940Z 21002KT M03/M04 A3035 RMK A01 T10331042  RH  094%=      5-min Rain = 0
KCH1 200941Z 20002KT M03/M04 A3035 RMK A01 T10331041  RH  094%=      5-min Rain = 0
KCH1 200942Z 18001KT M03/M04 A3035 RMK A01 T10331041  RH  094%=      5-min Rain = 0
KCH1 200943Z 00000KT M03/M04 A3035 RMK A01 T10331042  RH  094%=      5-min Rain = 0
KCH1 200944Z 08000KT M03/M04 A3035 RMK A01 T10341043  RH  094%=      5-min Rain = 0
KCH1 200945Z 08001KT M03/M04 A3035 RMK A01 T10341043  RH  094%=      5-min Rain = 0
KCH1 200946Z 12000KT M04/M04 A3035 RMK A01 T10351044  RH  094%=      5-min Rain = 0
KCH1 200947Z 00000KT M04/M05 A3035 RMK A01 T10361045  RH  094%=      5-min Rain = 0
KCH1 200948Z 11000KT M04/M05 A3034 RMK A01 T10371045  RH  094%=      5-min Rain = 0
KCH1 200949Z 09001KT M04/M05 A3034 RMK A01 T10371046  RH  094%=      5-min Rain = 0
KCH1 200950Z 07001KT M04/M05 A3034 RMK A01 T10381046  RH  094%=      5-min Rain = 0
KCH1 200951Z 07001KT M04/M05 A3034 RMK A01 T10381047  RH  094%=      5-min Rain = 0
KCH1 200952Z 07001KT M04/M05 A3034 RMK A01 T10381047  RH  094%=      5-min Rain = 0
KCH1 200953Z 06002KT M04/M05 A3034 RMK A01 T10391048  RH  094%=      5-min Rain = 0
KCH1 200954Z 05002KT M04/M05 A3034 RMK A01 T10401048  RH  094%=      5-min Rain = 0
KCH1 200955Z 05002KT M04/M05 A3034 RMK A01 T10401049  RH  094%=      5-min Rain = 0
KCH1 200956Z 05002KT M04/M05 A3035 RMK A01 T10411050  RH  094%=      5-min Rain = 0
KCH1 200957Z 05002KT M04/M05 A3035 RMK A01 T10411050  RH  094%=      5-min Rain = 0
KCH1 200958Z 05003KT M04/M05 A3035 RMK A01 T10421050  RH  094%=      5-min Rain = 0
KCH1 200959Z 05003KT M04/M05 A3035 RMK A01 T10421051  RH  094%=      5-min Rain = 0
KCH1 201000Z 05002KT M04/M05 A3035 RMK A01 T10431051  RH  094%=      5-min Rain = 0
KCH1 201001Z 05003KT M04/M05 A3035 RMK A01 T10441052  RH  094%=      5-min Rain = 0
KCH1 201002Z 04003KT M04/M05 A3035 RMK A01 T10441052  RH  094%=      5-min Rain = 0
KCH1 201003Z 04003KT M04/M05 A3035 RMK A01 T10431051  RH  095%=      5-min Rain = 0
KCH1 201004Z 05003KT M04/M05 A3035 RMK A01 T10431050  RH  095%=      5-min Rain = 0
KCH1 201005Z 06003KT M04/M05 A3035 RMK A01 T10431050  RH  095%=      5-min Rain = 0
KCH1 201006Z 06003KT M04/M05 A3035 RMK A01 T10431050  RH  095%=      5-min Rain = 0
KCH1 201007Z 06003KT M04/M05 A3034 RMK A01 T10431050  RH  095%=      5-min Rain = 0
KCH1 201008Z 06003KT M04/M05 A3034 RMK A01 T10431050  RH  095%=      5-min Rain = 0
KCH1 201009Z 05003KT M04/M05 A3035 RMK A01 T10431050  RH  095%=      5-min Rain = 0
KCH1 201010Z 05004KT M04/M05 A3035 RMK A01 T10431050  RH  095%=      5-min Rain = 0
KCH1 201011Z 05003KT M04/M05 A3035 RMK A01 T10431050  RH  095%=      5-min Rain = 0
KCH1 201012Z 05003KT M04/M05 A3035 RMK A01 T10431050  RH  095%=      5-min Rain = 0
KCH1 201013Z 05003KT M04/M05 A3034 RMK A01 T10431050  RH  095%=      5-min Rain = 0
KCH1 201014Z 06003KT M04/M05 A3034 RMK A01 T10421049  RH  095%=      5-min Rain = 0
KCH1 201015Z 05004KT M04/M05 A3034 RMK A01 T10431049  RH  095%=      5-min Rain = 0
KCH1 201016Z 05004KT M04/M05 A3035 RMK A01 T10431049  RH  095%=      5-min Rain = 0
KCH1 201017Z 05004KT M04/M05 A3035 RMK A01 T10421049  RH  095%=      5-min Rain = 0
KCH1 201018Z 05004KT M04/M05 A3035 RMK A01 T10421049  RH  095%=      5-min Rain = 0
KCH1 201019Z 05004KT M04/M05 A3035 RMK A01 T10421048  RH  095%=      5-min Rain = 0
KCH1 201020Z 05004KT M04/M05 A3035 RMK A01 T10421048  RH  095%=      5-min Rain = 0
KCH1 201021Z 04004KT M04/M05 A3035 RMK A01 T10421048  RH  095%=      5-min Rain = 0
KCH1 201022Z 04004KT M04/M05 A3035 RMK A01 T10411048  RH  095%=      5-min Rain = 0
KCH1 201023Z 04004KT M04/M05 A3035 RMK A01 T10411048  RH  095%=      5-min Rain = 0
KCH1 201024Z 04004KT M04/M05 A3035 RMK A01 T10421048  RH  095%=      5-min Rain = 0
KCH1 201025Z 04004KT M04/M05 A3035 RMK A01 T10411048  RH  095%=      5-min Rain = 0
KCH1 201026Z 04004KT M04/M05 A3035 RMK A01 T10411048  RH  095%=      5-min Rain = 0
KCH1 201027Z 04004KT M04/M05 A3035 RMK A01 T10411048  RH  095%=      5-min Rain = 0
KCH1 201028Z 04004KT M04/M05 A3035 RMK A01 T10401048  RH  095%=      5-min Rain = 0
KCH1 201029Z 04004KT M04/M05 A3035 RMK A01 T10411048  RH  094%=      5-min Rain = 0
KCH1 201030Z 04003KT M04/M05 A3035 RMK A01 T10411049  RH  094%=      5-min Rain = 0
KCH1 201031Z 04003KT M04/M05 A3035 RMK A01 T10411049  RH  094%=      5-min Rain = 0
KCH1 201032Z 04003KT M04/M05 A3035 RMK A01 T10401048  RH  095%=      5-min Rain = 0
KCH1 201033Z 04003KT M04/M05 A3035 RMK A01 T10381045  RH  095%=      5-min Rain = 0
KCH1 201034Z 05003KT M04/M04 A3035 RMK A01 T10371044  RH  095%=      5-min Rain = 0
KCH1 201035Z 05003KT M04/M04 A3035 RMK A01 T10351043  RH  095%=      5-min Rain = 0
KCH1 201036Z 06003KT M03/M04 A3035 RMK A01 T10341043  RH  094%=      5-min Rain = 0
KCH1 201037Z 06003KT M03/M04 A3035 RMK A01 T10331043  RH  093%=      5-min Rain = 0
KCH1 201038Z 06004KT M03/M04 A3035 RMK A01 T10331043  RH  092%=      5-min Rain = 0
KCH1 201039Z 06004KT M03/M04 A3035 RMK A01 T10321044  RH  092%=      5-min Rain = 0
KCH1 201040Z 07003KT M03/M04 A3035 RMK A01 T10311044  RH  090%=      5-min Rain = 0
KCH1 201041Z 07003KT M03/M05 A3035 RMK A01 T10311046  RH  089%=      5-min Rain = 0
KCH1 201042Z 06003KT M03/M05 A3035 RMK A01 T10311047  RH  089%=      5-min Rain = 0
KCH1 201043Z 06003KT M03/M05 A3035 RMK A01 T10311047  RH  089%=      5-min Rain = 0
KCH1 201044Z 06003KT M03/M05 A3035 RMK A01 T10311047  RH  089%=      5-min Rain = 0
KCH1 201045Z 07003KT M03/M05 A3035 RMK A01 T10311047  RH  089%=      5-min Rain = 0
KCH1 201046Z 07003KT M03/M05 A3035 RMK A01 T10311047  RH  088%=      5-min Rain = 0
KCH1 201047Z 07003KT M03/M05 A3035 RMK A01 T10301047  RH  088%=      5-min Rain = 0
KCH1 201048Z 07002KT M03/M05 A3035 RMK A01 T10311048  RH  088%=      5-min Rain = 0
KCH1 201049Z 08002KT M03/M05 A3035 RMK A01 T10301048  RH  088%=      5-min Rain = 0
KCH1 201050Z 08002KT M03/M05 A3035 RMK A01 T10311049  RH  087%=      5-min Rain = 0
KCH1 201051Z 08002KT M03/M05 A3035 RMK A01 T10321050  RH  087%=      5-min Rain = 0
KCH1 201052Z 09002KT M03/M05 A3035 RMK A01 T10331050  RH  088%=      5-min Rain = 0
KCH1 201053Z 10002KT M03/M05 A3035 RMK A01 T10331050  RH  088%=      5-min Rain = 0
KCH1 201054Z 10001KT M03/M05 A3035 RMK A01 T10331049  RH  089%=      5-min Rain = 0
KCH1 201055Z 09001KT M03/M05 A3035 RMK A01 T10331048  RH  089%=      5-min Rain = 0
KCH1 201056Z 09000KT M03/M05 A3035 RMK A01 T10341049  RH  089%=      5-min Rain = 0
KCH1 201057Z 10001KT M03/M05 A3035 RMK A01 T10341049  RH  090%=      5-min Rain = 0
KCH1 201058Z 12001KT M04/M05 A3035 RMK A01 T10351049  RH  090%=      5-min Rain = 0
KCH1 201059Z 12001KT M04/M05 A3035 RMK A01 T10351048  RH  091%=      5-min Rain = 0
KCH1 201100Z 12001KT M04/M05 A3035 RMK A01 T10351048  RH  091%=      5-min Rain = 0
KCH1 201101Z 12001KT M04/M05 A3035 RMK A01 T10351048  RH  091%=      5-min Rain = 0
KCH1 201102Z 11001KT M04/M05 A3035 RMK A01 T10361048  RH  091%=      5-min Rain = 0
KCH1 201103Z 12000KT M04/M05 A3035 RMK A01 T10361048  RH  091%=      5-min Rain = 0
KCH1 201104Z 12000KT M04/M05 A3035 RMK A01 T10361048  RH  092%=      5-min Rain = 0
KCH1 201105Z 12000KT M04/M05 A3035 RMK A01 T10361048  RH  092%=      5-min Rain = 0
KCH1 201106Z 12000KT M04/M05 A3035 RMK A01 T10361047  RH  092%=      5-min Rain = 0
KCH1 201107Z 00000KT M04/M05 A3035 RMK A01 T10371047  RH  092%=      5-min Rain = 0
KCH1 201108Z 00000KT M04/M05 A3035 RMK A01 T10371047  RH  092%=      5-min Rain = 0
KCH1 201109Z 00000KT M04/M05 A3035 RMK A01 T10371047  RH  093%=      5-min Rain = 0
KCH1 201110Z 00000KT M04/M05 A3035 RMK A01 T10371047  RH  093%=      5-min Rain = 0
KCH1 201111Z 21000KT M04/M05 A3035 RMK A01 T10371047  RH  093%=      5-min Rain = 0
KCH1 201112Z 22001KT M04/M05 A3035 RMK A01 T10371047  RH  093%=      5-min Rain = 0
KCH1 201113Z 23002KT M04/M05 A3035 RMK A01 T10371046  RH  093%=      5-min Rain = 0
KCH1 201114Z 23001KT M04/M05 A3035 RMK A01 T10371046  RH  093%=      5-min Rain = 0
KCH1 201115Z 23001KT M04/M05 A3035 RMK A01 T10371046  RH  093%=      5-min Rain = 0
KCH1 201116Z 23001KT M04/M05 A3035 RMK A01 T10371046  RH  094%=      5-min Rain = 0
KCH1 201117Z 23002KT M04/M05 A3035 RMK A01 T10371046  RH  094%=      5-min Rain = 0
KCH1 201118Z 24002KT M04/M05 A3035 RMK A01 T10371046  RH  094%=      5-min Rain = 0
KCH1 201119Z 24002KT M04/M05 A3035 RMK A01 T10371046  RH  093%=      5-min Rain = 0
KCH1 201120Z 24002KT M04/M05 A3035 RMK A01 T10361045  RH  093%=      5-min Rain = 0
KCH1 201121Z 24002KT M04/M05 A3035 RMK A01 T10361045  RH  093%=      5-min Rain = 0
KCH1 201122Z 24001KT M04/M05 A3035 RMK A01 T10351045  RH  093%=      5-min Rain = 0
KCH1 201123Z 22002KT M04/M05 A3035 RMK A01 T10351045  RH  092%=      5-min Rain = 0
KCH1 201124Z 23002KT M03/M05 A3035 RMK A01 T10341045  RH  092%=      5-min Rain = 0
KCH1 201125Z 24002KT M03/M05 A3035 RMK A01 T10341045  RH  092%=      5-min Rain = 0
KCH1 201126Z 24002KT M04/M05 A3035 RMK A01 T10351046  RH  092%=      5-min Rain = 0
KCH1 201127Z 25002KT M04/M05 A3035 RMK A01 T10351046  RH  092%=      5-min Rain = 0
KCH1 201128Z 25001KT M04/M05 A3035 RMK A01 T10351046  RH  092%=      5-min Rain = 0
KCH1 201129Z 26001KT M04/M05 A3035 RMK A01 T10361047  RH  092%=      5-min Rain = 0
KCH1 201130Z 26002KT M04/M05 A3035 RMK A01 T10361048  RH  092%=      5-min Rain = 0
KCH1 201131Z 26002KT M04/M05 A3034 RMK A01 T10371048  RH  092%=      5-min Rain = 0
KCH1 201132Z 25002KT M04/M05 A3034 RMK A01 T10371048  RH  092%=      5-min Rain = 0
KCH1 201133Z 23001KT M04/M05 A3034 RMK A01 T10361047  RH  093%=      5-min Rain = 0
KCH1 201134Z 23001KT M04/M05 A3034 RMK A01 T10361046  RH  093%=      5-min Rain = 0
KCH1 201135Z 23002KT M04/M05 A3034 RMK A01 T10361046  RH  093%=      5-min Rain = 0
KCH1 201136Z 23001KT M04/M05 A3034 RMK A01 T10361046  RH  093%=      5-min Rain = 0
KCH1 201137Z 22001KT M04/M05 A3034 RMK A01 T10361046  RH  093%=      5-min Rain = 0
KCH1 201138Z 22000KT M04/M05 A3034 RMK A01 T10371047  RH  093%=      5-min Rain = 0
KCH1 201139Z 00000KT M04/M05 A3034 RMK A01 T10401051  RH  092%=      5-min Rain = 0
KCH1 201140Z 00000KT M04/M05 A3034 RMK A01 T10421054  RH  091%=      5-min Rain = 0
KCH1 201141Z 00000KT M04/M06 A3034 RMK A01 T10441056  RH  091%=      5-min Rain = 0
KCH1 201142Z 00000KT M05/M06 A3034 RMK A01 T10451057  RH  092%=      5-min Rain = 0
KCH1 201143Z 00000KT M05/M06 A3034 RMK A01 T10461056  RH  092%=      5-min Rain = 0
KCH1 201144Z 00000KT M05/M06 A3034 RMK A01 T10461055  RH  093%=      5-min Rain = 0
KCH1 201145Z 00000KT M05/M06 A3034 RMK A01 T10461055  RH  094%=      5-min Rain = 0
KCH1 201146Z 15000KT M05/M05 A3034 RMK A01 T10461054  RH  094%=      5-min Rain = 0
KCH1 201147Z 15000KT M05/M05 A3033 RMK A01 T10461054  RH  094%=      5-min Rain = 0
KCH1 201148Z 00000KT M05/M05 A3033 RMK A01 T10461054  RH  094%=      5-min Rain = 0
KCH1 201149Z 00000KT M05/M05 A3033 RMK A01 T10451053  RH  095%=      5-min Rain = 0
KCH1 201150Z 00000KT M05/M05 A3034 RMK A01 T10461053  RH  095%=      5-min Rain = 0
KCH1 201151Z 00000KT M05/M05 A3034 RMK A01 T10461054  RH  095%=      5-min Rain = 0
KCH1 201152Z 00000KT M05/M05 A3034 RMK A01 T10461054  RH  095%=      5-min Rain = 0
KCH1 201153Z 00000KT M05/M05 A3034 RMK A01 T10461053  RH  095%=      5-min Rain = 0
KCH1 201154Z 00000KT M05/M05 A3034 RMK A01 T10461053  RH  095%=      5-min Rain = 0
KCH1 201155Z 00000KT M05/M05 A3034 RMK A01 T10461053  RH  095%=      5-min Rain = 0
KCH1 201156Z 00000KT M05/M05 A3034 RMK A01 T10461053  RH  095%=      5-min Rain = 0
KCH1 201157Z 09001KT M05/M05 A3034 RMK A01 T10461053  RH  095%=      5-min Rain = 0
KCH1 201158Z 08001KT M05/M05 A3034 RMK A01 T10451052  RH  095%=      5-min Rain = 0
KCH1 201159Z 08001KT M05/M05 A3034 RMK A01 T10451052  RH  095%=      5-min Rain = 0
KCH1 201200Z 00000KT M05/M05 A3034 RMK A01 T10461053  RH  095%=      5-min Rain = 0
KCH1 201201Z 00000KT M05/M05 A3034 RMK A01 T10451052  RH  095%=      5-min Rain = 0
KCH1 201202Z 00000KT M05/M05 A3034 RMK A01 T10451052  RH  095%=      5-min Rain = 0
KCH1 201203Z 00000KT M05/M05 A3034 RMK A01 T10461053  RH  095%=      5-min Rain = 0
KCH1 201204Z 00000KT M05/M05 A3034 RMK A01 T10451052  RH  095%=      5-min Rain = 0
KCH1 201205Z 00000KT M05/M05 A3034 RMK A01 T10451052  RH  095%=      5-min Rain = 0
KCH1 201206Z 00000KT M04/M05 A3034 RMK A01 T10441051  RH  095%=      5-min Rain = 0
KCH1 201207Z 00000KT M04/M05 A3034 RMK A01 T10441050  RH  095%=      5-min Rain = 0
KCH1 201208Z 19001KT M04/M05 A3034 RMK A01 T10431050  RH  095%=      5-min Rain = 0
KCH1 201209Z 20002KT M04/M05 A3034 RMK A01 T10431050  RH  095%=      5-min Rain = 0
KCH1 201210Z 20002KT M04/M05 A3034 RMK A01 T10431050  RH  095%=      5-min Rain = 0
KCH1 201211Z 20001KT M04/M05 A3034 RMK A01 T10421049  RH  095%=      5-min Rain = 0
KCH1 201212Z 20001KT M04/M05 A3034 RMK A01 T10421049  RH  095%=      5-min Rain = 0
KCH1 201213Z 19001KT M04/M05 A3034 RMK A01 T10411048  RH  095%=      5-min Rain = 0
KCH1 201214Z 17001KT M04/M05 A3034 RMK A01 T10411049  RH  095%=      5-min Rain = 0
KCH1 201215Z 15001KT M04/M05 A3034 RMK A01 T10411049  RH  094%=      5-min Rain = 0
KCH1 201216Z 00000KT M04/M05 A3034 RMK A01 T10411049  RH  094%=      5-min Rain = 0
KCH1 201217Z 00000KT M04/M05 A3034 RMK A01 T10411049  RH  094%=      5-min Rain = 0
KCH1 201218Z 00000KT M04/M05 A3034 RMK A01 T10411050  RH  094%=      5-min Rain = 0
KCH1 201219Z 12000KT M04/M05 A3034 RMK A01 T10421051  RH  093%=      5-min Rain = 0
KCH1 201220Z 10001KT M04/M05 A3034 RMK A01 T10431052  RH  093%=      5-min Rain = 0
KCH1 201221Z 12001KT M04/M05 A3034 RMK A01 T10431052  RH  093%=      5-min Rain = 0
KCH1 201222Z 13001KT M04/M05 A3034 RMK A01 T10431053  RH  093%=      5-min Rain = 0
KCH1 201223Z 13001KT M04/M05 A3034 RMK A01 T10431053  RH  093%=      5-min Rain = 0
KCH1 201224Z 11001KT M04/M05 A3034 RMK A01 T10441053  RH  093%=      5-min Rain = 0
KCH1 201225Z 07002KT M04/M05 A3034 RMK A01 T10431053  RH  093%=      5-min Rain = 0
KCH1 201226Z 07002KT M04/M05 A3034 RMK A01 T10441053  RH  093%=      5-min Rain = 0
KCH1 201227Z 07001KT M05/M05 A3034 RMK A01 T10451054  RH  093%=      5-min Rain = 0
KCH1 201228Z 07001KT M05/M06 A3034 RMK A01 T10451055  RH  093%=      5-min Rain = 0
KCH1 201229Z 09001KT M05/M06 A3034 RMK A01 T10461055  RH  093%=      5-min Rain = 0
KCH1 201230Z 09001KT M05/M06 A3033 RMK A01 T10461055  RH  093%=      5-min Rain = 0
KCH1 201231Z 09001KT M05/M06 A3034 RMK A01 T10461055  RH  094%=      5-min Rain = 0
KCH1 201232Z 09001KT M05/M06 A3034 RMK A01 T10461055  RH  094%=      5-min Rain = 0
KCH1 201233Z 09001KT M05/M05 A3034 RMK A01 T10461054  RH  094%=      5-min Rain = 0
KCH1 201234Z 07002KT M05/M05 A3034 RMK A01 T10461054  RH  094%=      5-min Rain = 0
KCH1 201235Z 06003KT M05/M06 A3034 RMK A01 T10471055  RH  094%=      5-min Rain = 0
KCH1 201236Z 06003KT M05/M06 A3034 RMK A01 T10481056  RH  094%=      5-min Rain = 0
KCH1 201237Z 06002KT M05/M06 A3034 RMK A01 T10491058  RH  094%=      5-min Rain = 0
KCH1 201238Z 06001KT M05/M06 A3034 RMK A01 T10501058  RH  094%=      5-min Rain = 0
KCH1 201239Z 00000KT M05/M06 A3034 RMK A01 T10491058  RH  094%=      5-min Rain = 0
KCH1 201240Z 07001KT M05/M06 A3034 RMK A01 T10501057  RH  094%=      5-min Rain = 0
KCH1 201241Z 07002KT M05/M06 A3034 RMK A01 T10491056  RH  095%=      5-min Rain = 0
KCH1 201242Z 07002KT M05/M06 A3034 RMK A01 T10481055  RH  095%=      5-min Rain = 0
KCH1 201243Z 06002KT M05/M05 A3034 RMK A01 T10471054  RH  095%=      5-min Rain = 0
KCH1 201244Z 06002KT M05/M05 A3034 RMK A01 T10471053  RH  095%=      5-min Rain = 0
KCH1 201245Z 06002KT M05/M05 A3034 RMK A01 T10471054  RH  095%=      5-min Rain = 0
KCH1 201246Z 06002KT M05/M05 A3034 RMK A01 T10471054  RH  095%=      5-min Rain = 0
KCH1 201247Z 06002KT M05/M05 A3034 RMK A01 T10461053  RH  095%=      5-min Rain = 0
KCH1 201248Z 06002KT M05/M05 A3034 RMK A01 T10461053  RH  095%=      5-min Rain = 0
KCH1 201249Z 07002KT M05/M05 A3034 RMK A01 T10461053  RH  095%=      5-min Rain = 0
KCH1 201250Z 07003KT M05/M05 A3034 RMK A01 T10461053  RH  095%=      5-min Rain = 0
KCH1 201251Z 07003KT M05/M05 A3034 RMK A01 T10461054  RH  095%=      5-min Rain = 0
KCH1 201252Z 07003KT M05/M06 A3034 RMK A01 T10471055  RH  094%=      5-min Rain = 0
KCH1 201253Z 07002KT M05/M06 A3034 RMK A01 T10481055  RH  094%=      5-min Rain = 0
KCH1 201254Z 07002KT M05/M06 A3034 RMK A01 T10481056  RH  094%=      5-min Rain = 0
KCH1 201255Z 07002KT M05/M06 A3034 RMK A01 T10481055  RH  095%=      5-min Rain = 0
KCH1 201256Z 08002KT M05/M06 A3034 RMK A01 T10471055  RH  095%=      5-min Rain = 0
KCH1 201257Z 08002KT M05/M06 A3034 RMK A01 T10471055  RH  095%=      5-min Rain = 0
KCH1 201258Z 08002KT M05/M05 A3034 RMK A01 T10471054  RH  095%=      5-min Rain = 0
KCH1 201259Z 08002KT M05/M05 A3034 RMK A01 T10471054  RH  095%=      5-min Rain = 0
KCH1 201300Z 09002KT M05/M05 A3034 RMK A01 T10471054  RH  095%=      5-min Rain = 0
KCH1 201301Z 09002KT M05/M05 A3034 RMK A01 T10471054  RH  095%=      5-min Rain = 0
KCH1 201302Z 10002KT M05/M05 A3034 RMK A01 T10471054  RH  095%=      5-min Rain = 0
KCH1 201303Z 10002KT M05/M06 A3033 RMK A01 T10471055  RH  094%=      5-min Rain = 0
KCH1 201304Z 09002KT M05/M06 A3033 RMK A01 T10471055  RH  094%=      5-min Rain = 0
KCH1 201305Z 09002KT M05/M06 A3033 RMK A01 T10471055  RH  094%=      5-min Rain = 0
KCH1 201306Z 09002KT M05/M06 A3033 RMK A01 T10471055  RH  095%=      5-min Rain = 0
KCH1 201307Z 10001KT M05/M06 A3033 RMK A01 T10471055  RH  095%=      5-min Rain = 0
KCH1 201308Z 11001KT M05/M06 A3033 RMK A01 T10471055  RH  095%=      5-min Rain = 0
KCH1 201309Z 11001KT M05/M06 A3033 RMK A01 T10471055  RH  095%=      5-min Rain = 0
KCH1 201310Z 12001KT M05/M06 A3033 RMK A01 T10471055  RH  095%=      5-min Rain = 0
KCH1 201311Z 12001KT M05/M05 A3033 RMK A01 T10471054  RH  095%=      5-min Rain = 0
KCH1 201312Z 12001KT M05/M05 A3033 RMK A01 T10461054  RH  095%=      5-min Rain = 0
KCH1 201313Z 12001KT M05/M05 A3033 RMK A01 T10461053  RH  095%=      5-min Rain = 0
KCH1 201314Z 12001KT M05/M05 A3033 RMK A01 T10451052  RH  094%=      5-min Rain = 0
KCH1 201315Z 12001KT M05/M05 A3033 RMK A01 T10451053  RH  094%=      5-min Rain = 0
KCH1 201316Z 12000KT M04/M05 A3033 RMK A01 T10441052  RH  094%=      5-min Rain = 0
KCH1 201317Z 00000KT M04/M05 A3033 RMK A01 T10441053  RH  094%=      5-min Rain = 0
KCH1 201318Z 00000KT M04/M05 A3033 RMK A01 T10441052  RH  094%=      5-min Rain = 0
KCH1 201319Z 00000KT M04/M05 A3034 RMK A01 T10441052  RH  094%=      5-min Rain = 0
KCH1 201320Z 00000KT M04/M05 A3034 RMK A01 T10441053  RH  094%=      5-min Rain = 0
KCH1 201321Z 11001KT M04/M05 A3034 RMK A01 T10441053  RH  093%=      5-min Rain = 0
KCH1 201322Z 11001KT M04/M05 A3034 RMK A01 T10441053  RH  093%=      5-min Rain = 0
KCH1 201323Z 11002KT M04/M05 A3034 RMK A01 T10441053  RH  093%=      5-min Rain = 0
KCH1 201324Z 10002KT M04/M05 A3034 RMK A01 T10441053  RH  093%=      5-min Rain = 0
KCH1 201325Z 10002KT M04/M05 A3034 RMK A01 T10441053  RH  093%=      5-min Rain = 0
KCH1 201326Z 11002KT M04/M05 A3034 RMK A01 T10441053  RH  093%=      5-min Rain = 0
KCH1 201327Z 11001KT M04/M05 A3034 RMK A01 T10441054  RH  093%=      5-min Rain = 0
KCH1 201328Z 13001KT M04/M05 A3034 RMK A01 T10431054  RH  093%=      5-min Rain = 0
KCH1 201329Z 13002KT M04/M05 A3034 RMK A01 T10431054  RH  092%=      5-min Rain = 0
KCH1 201330Z 14002KT M04/M05 A3034 RMK A01 T10441054  RH  092%=      5-min Rain = 0
KCH1 201331Z 15002KT M04/M06 A3034 RMK A01 T10441055  RH  092%=      5-min Rain = 0
KCH1 201332Z 14001KT M04/M06 A3034 RMK A01 T10441055  RH  092%=      5-min Rain = 0
KCH1 201333Z 13001KT M04/M06 A3034 RMK A01 T10441055  RH  092%=      5-min Rain = 0
KCH1 201334Z 13001KT M04/M06 A3034 RMK A01 T10441055  RH  092%=      5-min Rain = 0
KCH1 201335Z 12001KT M05/M06 A3034 RMK A01 T10451055  RH  092%=      5-min Rain = 0
KCH1 201336Z 13001KT M05/M06 A3034 RMK A01 T10451055  RH  093%=      5-min Rain = 0
KCH1 201337Z 13001KT M05/M06 A3034 RMK A01 T10451056  RH  093%=      5-min Rain = 0
KCH1 201338Z 14001KT M05/M06 A3034 RMK A01 T10451055  RH  093%=      5-min Rain = 0
KCH1 201339Z 15001KT M05/M06 A3034 RMK A01 T10461056  RH  093%=      5-min Rain = 0
KCH1 201340Z 15001KT M05/M06 A3034 RMK A01 T10451056  RH  093%=      5-min Rain = 0
KCH1 201341Z 16001KT M05/M06 A3034 RMK A01 T10461056  RH  093%=      5-min Rain = 0
KCH1 201342Z 16000KT M05/M06 A3034 RMK A01 T10461056  RH  093%=      5-min Rain = 0
KCH1 201343Z 00000KT M05/M06 A3034 RMK A01 T10461056  RH  093%=      5-min Rain = 0
KCH1 201344Z 00000KT M05/M06 A3034 RMK A01 T10461056  RH  093%=      5-min Rain = 0
KCH1 201345Z 16001KT M05/M06 A3034 RMK A01 T10461056  RH  093%=      5-min Rain = 0
KCH1 201346Z 16001KT M05/M06 A3034 RMK A01 T10461055  RH  093%=      5-min Rain = 0
KCH1 201347Z 17001KT M05/M05 A3034 RMK A01 T10451054  RH  093%=      5-min Rain = 0
KCH1 201348Z 18001KT M04/M05 A3034 RMK A01 T10441053  RH  093%=      5-min Rain = 0
KCH1 201349Z 18001KT M04/M05 A3034 RMK A01 T10441053  RH  093%=      5-min Rain = 0
KCH1 201350Z 18000KT M04/M05 A3034 RMK A01 T10441053  RH  093%=      5-min Rain = 0
KCH1 201351Z 00000KT M04/M05 A3034 RMK A01 T10431053  RH  093%=      5-min Rain = 0
KCH1 201352Z 00000KT M04/M05 A3034 RMK A01 T10431052  RH  093%=      5-min Rain = 0
KCH1 201353Z 00000KT M04/M05 A3034 RMK A01 T10431052  RH  093%=      5-min Rain = 0
KCH1 201354Z 00000KT M04/M05 A3034 RMK A01 T10421051  RH  093%=      5-min Rain = 0
KCH1 201355Z 00000KT M04/M05 A3034 RMK A01 T10421051  RH  093%=      5-min Rain = 0
KCH1 201356Z 00000KT M04/M05 A3034 RMK A01 T10411051  RH  093%=      5-min Rain = 0
KCH1 201357Z 00000KT M04/M05 A3034 RMK A01 T10411050  RH  093%=      5-min Rain = 0
KCH1 201358Z 00000KT M04/M05 A3034 RMK A01 T10401050  RH  093%=      5-min Rain = 0
KCH1 201359Z 00000KT M04/M05 A3034 RMK A01 T10401050  RH  093%=      5-min Rain = 0
KCH1 201400Z 00000KT M04/M05 A3034 RMK A01 T10391050  RH  092%=      5-min Rain = 0
KCH1 201401Z 20000KT M04/M05 A3034 RMK A01 T10391050  RH  092%=      5-min Rain = 0
KCH1 201402Z 00000KT M04/M05 A3034 RMK A01 T10381049  RH  092%=      5-min Rain = 0
KCH1 201403Z 00000KT M04/M05 A3034 RMK A01 T10371049  RH  092%=      5-min Rain = 0
KCH1 201404Z 26000KT M04/M05 A3034 RMK A01 T10361048  RH  091%=      5-min Rain = 0
KCH1 201405Z 00000KT M04/M05 A3034 RMK A01 T10361048  RH  091%=      5-min Rain = 0
KCH1 201406Z 00000KT M04/M05 A3034 RMK A01 T10351048  RH  091%=      5-min Rain = 0
KCH1 201407Z 00000KT M04/M05 A3034 RMK A01 T10351048  RH  091%=      5-min Rain = 0
KCH1 201408Z 00000KT M03/M05 A3034 RMK A01 T10341047  RH  091%=      5-min Rain = 0
KCH1 201409Z 00000KT M03/M05 A3034 RMK A01 T10331047  RH  090%=      5-min Rain = 0
KCH1 201410Z 00000KT M03/M05 A3034 RMK A01 T10331046  RH  090%=      5-min Rain = 0
KCH1 201411Z 00000KT M03/M05 A3034 RMK A01 T10321046  RH  090%=      5-min Rain = 0
KCH1 201412Z 00000KT M03/M05 A3034 RMK A01 T10311045  RH  090%=      5-min Rain = 0
KCH1 201413Z 00000KT M03/M04 A3034 RMK A01 T10301044  RH  091%=      5-min Rain = 0
KCH1 201414Z 00000KT M03/M04 A3034 RMK A01 T10301043  RH  091%=      5-min Rain = 0
KCH1 201415Z 00000KT M03/M04 A3034 RMK A01 T10311044  RH  091%=      5-min Rain = 0
KCH1 201416Z 27000KT M03/M05 A3034 RMK A01 T10331046  RH  090%=      5-min Rain = 0
KCH1 201417Z 00000KT M03/M05 A3034 RMK A01 T10341047  RH  090%=      5-min Rain = 0
KCH1 201418Z 00000KT M03/M05 A3034 RMK A01 T10341047  RH  091%=      5-min Rain = 0
KCH1 201419Z 00000KT M04/M05 A3034 RMK A01 T10351047  RH  091%=      5-min Rain = 0
KCH1 201420Z 00000KT M04/M05 A3034 RMK A01 T10351047  RH  091%=      5-min Rain = 0
KCH1 201421Z 00000KT M04/M05 A3034 RMK A01 T10351048  RH  091%=      5-min Rain = 0
KCH1 201422Z 12000KT M03/M05 A3034 RMK A01 T10341047  RH  091%=      5-min Rain = 0
KCH1 201423Z 12000KT M03/M05 A3034 RMK A01 T10341046  RH  091%=      5-min Rain = 0
KCH1 201424Z 12000KT M03/M05 A3034 RMK A01 T10331046  RH  091%=      5-min Rain = 0
KCH1 201425Z 00000KT M03/M05 A3034 RMK A01 T10321045  RH  091%=      5-min Rain = 0
KCH1 201426Z 00000KT M03/M04 A3034 RMK A01 T10321044  RH  092%=      5-min Rain = 0
KCH1 201427Z 00000KT M03/M04 A3034 RMK A01 T10311043  RH  092%=      5-min Rain = 0
KCH1 201428Z 08000KT M03/M04 A3034 RMK A01 T10311043  RH  091%=      5-min Rain = 0
KCH1 201429Z 07002KT M03/M04 A3034 RMK A01 T10301043  RH  091%=      5-min Rain = 0
KCH1 201430Z 06002KT M03/M04 A3034 RMK A01 T10301041  RH  092%=      5-min Rain = 0
KCH1 201431Z 06002KT M03/M04 A3034 RMK A01 T10291041  RH  092%=      5-min Rain = 0
KCH1 201432Z 06002KT M03/M04 A3034 RMK A01 T10301041  RH  092%=      5-min Rain = 0
KCH1 201433Z 06002KT M03/M04 A3034 RMK A01 T10301041  RH  092%=      5-min Rain = 0
KCH1 201434Z 06002KT M03/M04 A3034 RMK A01 T10291039  RH  093%=      5-min Rain = 0
KCH1 201435Z 06002KT M03/M04 A3034 RMK A01 T10291038  RH  094%=      5-min Rain = 0
KCH1 201436Z 07002KT M03/M04 A3034 RMK A01 T10291039  RH  093%=      5-min Rain = 0
KCH1 201437Z 07002KT M03/M04 A3034 RMK A01 T10291040  RH  093%=      5-min Rain = 0
KCH1 201438Z 06002KT M03/M04 A3034 RMK A01 T10291039  RH  093%=      5-min Rain = 0
KCH1 201439Z 06001KT M03/M04 A3034 RMK A01 T10281038  RH  093%=      5-min Rain = 0
KCH1 201440Z 07002KT M03/M04 A3034 RMK A01 T10281038  RH  092%=      5-min Rain = 0
KCH1 201441Z 08002KT M03/M04 A3034 RMK A01 T10281040  RH  092%=      5-min Rain = 0
KCH1 201442Z 08002KT M03/M04 A3034 RMK A01 T10271039  RH  091%=      5-min Rain = 0
KCH1 201443Z 07002KT M03/M04 A3034 RMK A01 T10261039  RH  091%=      5-min Rain = 0
KCH1 201444Z 08001KT M03/M04 A3034 RMK A01 T10261039  RH  090%=      5-min Rain = 0
KCH1 201445Z 08001KT M03/M04 A3034 RMK A01 T10251039  RH  090%=      5-min Rain = 0
KCH1 201446Z 08000KT M03/M04 A3034 RMK A01 T10251040  RH  089%=      5-min Rain = 0
KCH1 201447Z 00000KT M02/M04 A3034 RMK A01 T10241040  RH  089%=      5-min Rain = 0
KCH1 201448Z 08000KT M02/M04 A3034 RMK A01 T10231041  RH  088%=      5-min Rain = 0
KCH1 201449Z 07001KT M02/M04 A3034 RMK A01 T10221040  RH  088%=      5-min Rain = 0
KCH1 201450Z 07001KT M02/M04 A3034 RMK A01 T10221039  RH  088%=      5-min Rain = 0
KCH1 201451Z 07001KT M02/M04 A3034 RMK A01 T10211040  RH  087%=      5-min Rain = 0
KCH1 201452Z 06002KT M02/M04 A3034 RMK A01 T10211040  RH  087%=      5-min Rain = 0
KCH1 201453Z 05001KT M02/M04 A3034 RMK A01 T10211041  RH  086%=      5-min Rain = 0
KCH1 201454Z 06002KT M02/M04 A3034 RMK A01 T10211043  RH  085%=      5-min Rain = 0
KCH1 201455Z 06001KT M02/M04 A3034 RMK A01 T10201042  RH  085%=      5-min Rain = 0
KCH1 201456Z 05001KT M02/M04 A3034 RMK A01 T10201040  RH  086%=      5-min Rain = 0
KCH1 201457Z 06001KT M02/M04 A3034 RMK A01 T10191041  RH  085%=      5-min Rain = 0
KCH1 201458Z 08001KT M02/M04 A3034 RMK A01 T10191041  RH  085%=      5-min Rain = 0
KCH1 201459Z 07001KT M02/M04 A3034 RMK A01 T10181041  RH  085%=      5-min Rain = 0
KCH1 201500Z 06001KT M02/M04 A3034 RMK A01 T10181040  RH  084%=      5-min Rain = 0
KCH1 201501Z 07001KT M02/M04 A3034 RMK A01 T10171039  RH  085%=      5-min Rain = 0
KCH1 201502Z 08002KT M02/M04 A3034 RMK A01 T10161038  RH  085%=      5-min Rain = 0
KCH1 201503Z 07000KT M02/M04 A3034 RMK A01 T10161037  RH  086%=      5-min Rain = 0
KCH1 201504Z 08001KT M02/M04 A3034 RMK A01 T10161036  RH  086%=      5-min Rain = 0
KCH1 201505Z 08001KT M02/M04 A3034 RMK A01 T10151036  RH  086%=      5-min Rain = 0
KCH1 201506Z 08000KT M01/M04 A3034 RMK A01 T10141035  RH  086%=      5-min Rain = 0
KCH1 201507Z 07001KT M01/M03 A3034 RMK A01 T10131033  RH  087%=      5-min Rain = 0
KCH1 201508Z 09001KT M01/M03 A3034 RMK A01 T10131033  RH  086%=      5-min Rain = 0
KCH1 201509Z 09002KT M01/M04 A3034 RMK A01 T10131035  RH  085%=      5-min Rain = 0
KCH1 201510Z 09001KT M01/M04 A3034 RMK A01 T10131036  RH  084%=      5-min Rain = 0
KCH1 201511Z 08000KT M01/M04 A3034 RMK A01 T10131037  RH  084%=      5-min Rain = 0
KCH1 201512Z 09001KT M01/M04 A3034 RMK A01 T10131037  RH  084%=      5-min Rain = 0
KCH1 201513Z 10002KT M01/M04 A3034 RMK A01 T10131037  RH  083%=      5-min Rain = 0
KCH1 201514Z 09000KT M01/M04 A3034 RMK A01 T10121037  RH  083%=      5-min Rain = 0
KCH1 201515Z 10002KT M01/M04 A3034 RMK A01 T10111036  RH  083%=      5-min Rain = 0
KCH1 201516Z 11002KT M01/M04 A3034 RMK A01 T10111037  RH  083%=      5-min Rain = 0
KCH1 201517Z 11001KT M01/M04 A3034 RMK A01 T10111035  RH  084%=      5-min Rain = 0
KCH1 201518Z 13002KT M01/M03 A3034 RMK A01 T10091033  RH  084%=      5-min Rain = 0
KCH1 201519Z 14002KT M01/M03 A3034 RMK A01 T10091031  RH  085%=      5-min Rain = 0
KCH1 201520Z 17002KT M01/M03 A3034 RMK A01 T10081031  RH  084%=      5-min Rain = 0
KCH1 201521Z 14002KT M01/M03 A3034 RMK A01 T10071031  RH  084%=      5-min Rain = 0
KCH1 201522Z 16002KT M01/M03 A3034 RMK A01 T10051029  RH  084%=      5-min Rain = 0
KCH1 201523Z 15002KT M01/M03 A3034 RMK A01 T10051033  RH  081%=      5-min Rain = 0
KCH1 201524Z 14003KT M00/M03 A3034 RMK A01 T10041034  RH  080%=      5-min Rain = 0
KCH1 201525Z 14002KT M00/M04 A3034 RMK A01 T10041036  RH  079%=      5-min Rain = 0
KCH1 201526Z 14004KT M00/M04 A3034 RMK A01 T10031036  RH  079%=      5-min Rain = 0
KCH1 201527Z 16004KT M00/M04 A3034 RMK A01 T10021038  RH  077%=      5-min Rain = 0
KCH1 201528Z 15002KT 00/04 A3034 RMK A01 T00-00-35  RH  077%=      5-min Rain = 0
KCH1 201529Z 16003KT 00/M03 A3034 RMK A01 T00021031  RH  078%=      5-min Rain = 0
KCH1 201530Z 16002KT 00/M03 A3034 RMK A01 T00041029  RH  078%=      5-min Rain = 0
KCH1 201531Z 15003KT 01/M03 A3034 RMK A01 T00061029  RH  078%=      5-min Rain = 0
KCH1 201532Z 16004KT 01/M03 A3034 RMK A01 T00071030  RH  076%=      5-min Rain = 0
KCH1 201533Z 16004KT 01/M04 A3034 RMK A01 T00081037  RH  072%=      5-min Rain = 0
KCH1 201534Z 16004KT 01/M04 A3034 RMK A01 T00071039  RH  071%=      5-min Rain = 0
KCH1 201535Z 15004KT 01/M04 A3034 RMK A01 T00071037  RH  073%=      5-min Rain = 0
KCH1 201536Z 14004KT 01/M04 A3034 RMK A01 T00071036  RH  073%=      5-min Rain = 0
KCH1 201537Z 16003KT 01/M04 A3034 RMK A01 T00071036  RH  073%=      5-min Rain = 0
KCH1 201538Z 16002KT 01/M04 A3034 RMK A01 T00081037  RH  072%=      5-min Rain = 0
KCH1 201539Z 17004KT 01/M04 A3034 RMK A01 T00081035  RH  073%=      5-min Rain = 0
KCH1 201540Z 17004KT 01/M03 A3034 RMK A01 T00081033  RH  074%=      5-min Rain = 0
KCH1 201541Z 16003KT 01/M04 A3034 RMK A01 T00081035  RH  073%=      5-min Rain = 0
KCH1 201542Z 17003KT 01/M04 A3034 RMK A01 T00081035  RH  073%=      5-min Rain = 0
KCH1 201543Z 18003KT 01/M04 A3034 RMK A01 T00091035  RH  073%=      5-min Rain = 0
KCH1 201544Z 19003KT 01/M04 A3034 RMK A01 T00091036  RH  072%=      5-min Rain = 0
KCH1 201545Z 19003KT 01/M04 A3034 RMK A01 T00081036  RH  072%=      5-min Rain = 0
KCH1 201546Z 16003KT 01/M03 A3034 RMK A01 T00081033  RH  074%=      5-min Rain = 0
KCH1 201547Z 17003KT 01/M03 A3034 RMK A01 T00101033  RH  073%=      5-min Rain = 0
KCH1 201548Z 17003KT 01/M03 A3034 RMK A01 T00121030  RH  074%=      5-min Rain = 0
KCH1 201549Z 16003KT 01/M03 A3034 RMK A01 T00131031  RH  072%=      5-min Rain = 0
KCH1 201550Z 17004KT 01/M03 A3034 RMK A01 T00141033  RH  071%=      5-min Rain = 0
KCH1 201551Z 16003KT 02/M03 A3034 RMK A01 T00151032  RH  071%=      5-min Rain = 0
KCH1 201552Z 16004KT 02/M03 A3034 RMK A01 T00161032  RH  070%=      5-min Rain = 0
KCH1 201553Z 15004KT 02/M03 A3034 RMK A01 T00171034  RH  069%=      5-min Rain = 0
KCH1 201554Z 17003KT 02/M04 A3034 RMK A01 T00171037  RH  068%=      5-min Rain = 0
KCH1 201555Z 14003KT 02/M03 A3034 RMK A01 T00171034  RH  069%=      5-min Rain = 0
KCH1 201556Z 13003KT 02/M04 A3034 RMK A01 T00171035  RH  069%=      5-min Rain = 0
KCH1 201557Z 14003KT 02/M03 A3034 RMK A01 T00181033  RH  069%=      5-min Rain = 0
KCH1 201558Z 17003KT 02/M03 A3034 RMK A01 T00191034  RH  068%=      5-min Rain = 0
KCH1 201559Z 16002KT 02/M04 A3034 RMK A01 T00201035  RH  067%=      5-min Rain = 0
KCH1 201600Z 13003KT 02/M03 A3034 RMK A01 T00211030  RH  069%=      5-min Rain = 0
KCH1 201601Z 15003KT 02/M03 A3034 RMK A01 T00211032  RH  068%=      5-min Rain = 0
KCH1 201602Z 15003KT 02/M03 A3034 RMK A01 T00221032  RH  068%=      5-min Rain = 0
KCH1 201603Z 17002KT 02/M03 A3034 RMK A01 T00221027  RH  070%=      5-min Rain = 0
KCH1 201604Z 14003KT 02/M03 A3034 RMK A01 T00241030  RH  067%=      5-min Rain = 0
KCH1 201605Z 13003KT 03/M03 A3034 RMK A01 T00261031  RH  066%=      5-min Rain = 0
KCH1 201606Z 14003KT 03/M03 A3034 RMK A01 T00271029  RH  067%=      5-min Rain = 0
KCH1 201607Z 14004KT 03/M03 A3034 RMK A01 T00271033  RH  064%=      5-min Rain = 0
KCH1 201608Z 17003KT 03/M03 A3034 RMK A01 T00261034  RH  064%=      5-min Rain = 0
KCH1 201609Z 14004KT 03/M03 A3034 RMK A01 T00261031  RH  066%=      5-min Rain = 0
KCH1 201610Z 16003KT 03/M03 A3034 RMK A01 T00271034  RH  064%=      5-min Rain = 0
KCH1 201611Z 14004KT 03/M03 A3034 RMK A01 T00271034  RH  064%=      5-min Rain = 0
KCH1 201612Z 13004KT 03/M04 A3034 RMK A01 T00281035  RH  063%=      5-min Rain = 0
KCH1 201613Z 14005KT 03/M04 A3034 RMK A01 T00291035  RH  063%=      5-min Rain = 0
KCH1 201614Z 15005KT 03/M03 A3034 RMK A01 T00301033  RH  063%=      5-min Rain = 0
KCH1 201615Z 15005KT 03/M04 A3034 RMK A01 T00301035  RH  062%=      5-min Rain = 0
KCH1 201616Z 15004KT 03/M03 A3034 RMK A01 T00301034  RH  063%=      5-min Rain = 0
KCH1 201617Z 15004KT 03/M03 A3034 RMK A01 T00321032  RH  063%=      5-min Rain = 0
KCH1 201618Z 14004KT 03/M03 A3034 RMK A01 T00331034  RH  061%=      5-min Rain = 0
KCH1 201619Z 14004KT 03/M04 A3034 RMK A01 T00321038  RH  060%=      5-min Rain = 0
KCH1 201620Z 14006KT 03/M04 A3034 RMK A01 T00321036  RH  061%=      5-min Rain = 0
KCH1 201621Z 14004KT 03/M04 A3034 RMK A01 T00331035  RH  061%=      5-min Rain = 0
KCH1 201622Z 15006KT 03/M03 A3034 RMK A01 T00341033  RH  062%=      5-min Rain = 0
KCH1 201623Z 17004KT 03/M04 A3034 RMK A01 T00331038  RH  060%=      5-min Rain = 0
KCH1 201624Z 15004KT 03/M04 A3034 RMK A01 T00321037  RH  061%=      5-min Rain = 0
KCH1 201625Z 14003KT 03/M04 A3034 RMK A01 T00321036  RH  061%=      5-min Rain = 0
KCH1 201626Z 15006KT 04/M04 A3034 RMK A01 T00351035  RH  060%=      5-min Rain = 0
KCH1 201627Z 17005KT 04/M04 A3034 RMK A01 T00361035  RH  060%=      5-min Rain = 0
KCH1 201628Z 16004KT 04/M04 A3034 RMK A01 T00351039  RH  059%=      5-min Rain = 0
KCH1 201629Z 15004KT 03/M04 A3034 RMK A01 T00341040  RH  059%=      5-min Rain = 0
KCH1 201630Z 15005KT 03/M04 A3034 RMK A01 T00341039  RH  059%=      5-min Rain = 0
KCH1 201631Z 16006KT 04/M04 A3034 RMK A01 T00351040  RH  058%=      5-min Rain = 0
KCH1 201632Z 16006KT 04/M04 A3034 RMK A01 T00361038  RH  058%=      5-min Rain = 0
KCH1 201633Z 16004KT 04/M04 A3034 RMK A01 T00361040  RH  057%=      5-min Rain = 0
KCH1 201634Z 16005KT 04/M04 A3034 RMK A01 T00361042  RH  057%=      5-min Rain = 0
KCH1 201635Z 16005KT 04/M04 A3034 RMK A01 T00361042  RH  057%=      5-min Rain = 0
KCH1 201636Z 18004KT 04/M04 A3034 RMK A01 T00361040  RH  058%=      5-min Rain = 0
KCH1 201637Z 17006KT 04/M04 A3034 RMK A01 T00371041  RH  057%=      5-min Rain = 0
KCH1 201638Z 16005KT 04/M04 A3034 RMK A01 T00361042  RH  057%=      5-min Rain = 0
KCH1 201639Z 15005KT 04/M04 A3034 RMK A01 T00361041  RH  057%=      5-min Rain = 0
KCH1 201640Z 14005KT 04/M04 A3034 RMK A01 T00361042  RH  057%=      5-min Rain = 0
KCH1 201641Z 14006KT 04/M04 A3034 RMK A01 T00361041  RH  057%=      5-min Rain = 0
KCH1 201642Z 15004KT 04/M04 A3034 RMK A01 T00381039  RH  057%=      5-min Rain = 0
KCH1 201643Z 15005KT 04/M04 A3034 RMK A01 T00401038  RH  057%=      5-min Rain = 0
KCH1 201644Z 15006KT 04/M04 A3034 RMK A01 T00411040  RH  056%=      5-min Rain = 0
KCH1 201645Z 15005KT 04/M04 A3034 RMK A01 T00411042  RH  055%=      5-min Rain = 0
KCH1 201646Z 16005KT 04/M04 A3034 RMK A01 T00401044  RH  054%=      5-min Rain = 0
KCH1 201647Z 16005KT 04/M04 A3034 RMK A01 T00411042  RH  055%=      5-min Rain = 0
KCH1 201648Z 15006KT 04/M04 A3034 RMK A01 T00431042  RH  054%=      5-min Rain = 0
KCH1 201649Z 15006KT 04/M04 A3034 RMK A01 T00441041  RH  054%=      5-min Rain = 0
KCH1 201650Z 15007KT 05/M04 A3034 RMK A01 T00461041  RH  053%=      5-min Rain = 0
KCH1 201651Z 16006KT 05/M04 A3034 RMK A01 T00461041  RH  053%=      5-min Rain = 0
KCH1 201652Z 16005KT 05/M04 A3034 RMK A01 T00471041  RH  053%=      5-min Rain = 0
KCH1 201653Z 15007KT 05/M04 A3034 RMK A01 T00451044  RH  052%=      5-min Rain = 0
KCH1 201654Z 15007KT 05/M04 A3034 RMK A01 T00451042  RH  053%=      5-min Rain = 0
KCH1 201655Z 14007KT 05/M04 A3034 RMK A01 T00461042  RH  053%=      5-min Rain = 0
KCH1 201656Z 17006KT 05/M04 A3034 RMK A01 T00461042  RH  053%=      5-min Rain = 0
KCH1 201657Z 15003KT 05/M04 A3033 RMK A01 T00461042  RH  053%=      5-min Rain = 0
KCH1 201658Z 15005KT 05/M04 A3033 RMK A01 T00451041  RH  054%=      5-min Rain = 0
KCH1 201659Z 15006KT 05/M04 A3033 RMK A01 T00471039  RH  054%=      5-min Rain = 0
KCH1 201700Z 15004KT 05/M04 A3033 RMK A01 T00471041  RH  053%=      5-min Rain = 0
KCH1 201701Z 16004KT 05/M04 A3033 RMK A01 T00471041  RH  053%=      5-min Rain = 0
KCH1 201702Z 16005KT 05/M04 A3033 RMK A01 T00491036  RH  054%=      5-min Rain = 0
KCH1 201703Z 14006KT 05/M04 A3033 RMK A01 T00511039  RH  052%=      5-min Rain = 0
KCH1 201704Z 14006KT 05/M04 A3033 RMK A01 T00501039  RH  052%=      5-min Rain = 0
KCH1 201705Z 15006KT 05/M04 A3033 RMK A01 T00501039  RH  053%=      5-min Rain = 0
KCH1 201706Z 16006KT 05/M04 A3033 RMK A01 T00501040  RH  052%=      5-min Rain = 0
KCH1 201707Z 16005KT 05/M04 A3033 RMK A01 T00491039  RH  053%=      5-min Rain = 0
KCH1 201708Z 16006KT 05/M04 A3033 RMK A01 T00511037  RH  053%=      5-min Rain = 0
KCH1 201709Z 15006KT 05/M04 A3033 RMK A01 T00521037  RH  053%=      5-min Rain = 0
KCH1 201710Z 16006KT 05/M04 A3032 RMK A01 T00521040  RH  052%=      5-min Rain = 0
KCH1 201711Z 17007KT 05/M04 A3032 RMK A01 T00511041  RH  051%=      5-min Rain = 0
KCH1 201712Z 16007KT 05/M04 A3032 RMK A01 T00491043  RH  051%=      5-min Rain = 0
KCH1 201713Z 15008KT 05/M04 A3032 RMK A01 T00491041  RH  052%=      5-min Rain = 0
KCH1 201714Z 15006KT 05/M04 A3032 RMK A01 T00501041  RH  052%=      5-min Rain = 0
KCH1 201715Z 15005KT 05/M04 A3032 RMK A01 T00501041  RH  052%=      5-min Rain = 0
KCH1 201716Z 15006KT 05/M04 A3032 RMK A01 T00511041  RH  052%=      5-min Rain = 0
KCH1 201717Z 16007KT 05/M04 A3032 RMK A01 T00541037  RH  052%=      5-min Rain = 0
KCH1 201718Z 17007KT 06/M04 A3032 RMK A01 T00551040  RH  051%=      5-min Rain = 0
KCH1 201719Z 16007KT 05/M04 A3032 RMK A01 T00541040  RH  051%=      5-min Rain = 0
KCH1 201720Z 16006KT 05/M04 A3032 RMK A01 T00541038  RH  051%=      5-min Rain = 0
KCH1 201721Z 16006KT 06/M04 A3032 RMK A01 T00551038  RH  051%=      5-min Rain = 0
KCH1 201722Z 16006KT 06/M04 A3032 RMK A01 T00561038  RH  051%=      5-min Rain = 0
KCH1 201723Z 15005KT 06/M04 A3032 RMK A01 T00561037  RH  051%=      5-min Rain = 0
KCH1 201724Z 16006KT 06/M04 A3032 RMK A01 T00581035  RH  051%=      5-min Rain = 0
KCH1 201725Z 15008KT 06/M04 A3032 RMK A01 T00601035  RH  050%=      5-min Rain = 0
KCH1 201726Z 15008KT 06/M04 A3032 RMK A01 T00621036  RH  049%=      5-min Rain = 0
KCH1 201727Z 15007KT 06/M04 A3032 RMK A01 T00621038  RH  049%=      5-min Rain = 0
KCH1 201728Z 16005KT 06/M04 A3032 RMK A01 T00611037  RH  049%=      5-min Rain = 0
KCH1 201729Z 16004KT 06/M04 A3032 RMK A01 T00621035  RH  050%=      5-min Rain = 0
KCH1 201730Z 15006KT 06/M04 A3032 RMK A01 T00631036  RH  049%=      5-min Rain = 0
KCH1 201731Z 14007KT 06/M04 A3032 RMK A01 T00641035  RH  049%=      5-min Rain = 0
KCH1 201732Z 13007KT 06/M04 A3032 RMK A01 T00631038  RH  048%=      5-min Rain = 0
KCH1 201733Z 13006KT 06/M04 A3032 RMK A01 T00611039  RH  049%=      5-min Rain = 0
KCH1 201734Z 15008KT 06/M04 A3032 RMK A01 T00601037  RH  050%=      5-min Rain = 0
KCH1 201735Z 17007KT 06/M04 A3031 RMK A01 T00611038  RH  049%=      5-min Rain = 0
KCH1 201736Z 15007KT 06/M04 A3031 RMK A01 T00621035  RH  050%=      5-min Rain = 0
KCH1 201737Z 15009KT 07/M03 A3031 RMK A01 T00671033  RH  049%=      5-min Rain = 0
KCH1 201738Z 15006KT 07/M04 A3031 RMK A01 T00661038  RH  047%=      5-min Rain = 0
KCH1 201739Z 15005KT 07/M04 A3031 RMK A01 T00651038  RH  048%=      5-min Rain = 0
KCH1 201740Z 16004KT 07/M04 A3031 RMK A01 T00651038  RH  048%=      5-min Rain = 0
KCH1 201741Z 15006G11KT 07/M03 A3031 RMK A01 T00661034  RH  049%=      5-min Rain = 0
KCH1 201742Z 16009KT 07/M04 A3031 RMK A01 T00701035  RH  047%=      5-min Rain = 0
KCH1 201743Z 17007KT 07/M04 A3031 RMK A01 T00701036  RH  047%=      5-min Rain = 0
KCH1 201744Z 17007KT 07/M04 A3031 RMK A01 T00691039  RH  046%=      5-min Rain = 0
KCH1 201745Z 16007KT 07/M04 A3031 RMK A01 T00671038  RH  047%=      5-min Rain = 0
KCH1 201746Z 14009KT 07/M04 A303 RMK A01 T00681035  RH  048%=      5-min Rain = 0
KCH1 201747Z 14008KT 07/M04 A303 RMK A01 T00701036  RH  047%=      5-min Rain = 0
KCH1 201748Z 15005KT 07/M04 A303 RMK A01 T00701037  RH  047%=      5-min Rain = 0
KCH1 201749Z 14005KT 07/M04 A303 RMK A01 T00701035  RH  047%=      5-min Rain = 0
KCH1 201750Z 14007KT 07/M03 A303 RMK A01 T00731033  RH  047%=      5-min Rain = 0
KCH1 201751Z 16007KT 07/M03 A303 RMK A01 T00741034  RH  046%=      5-min Rain = 0
KCH1 201752Z 17007KT 08/M03 A303 RMK A01 T00751034  RH  046%=      5-min Rain = 0
KCH1 201753Z 16008KT 08/M03 A303 RMK A01 T00751034  RH  046%=      5-min Rain = 0
KCH1 201754Z 17007KT 08/M03 A3029 RMK A01 T00761033  RH  046%=      5-min Rain = 0
KCH1 201755Z 18007KT 08/M03 A3029 RMK A01 T00771033  RH  046%=      5-min Rain = 0
KCH1 201756Z 17006KT 08/M03 A3029 RMK A01 T00771034  RH  045%=      5-min Rain = 0
KCH1 201757Z 17006KT 08/M03 A3029 RMK A01 T00771033  RH  046%=      5-min Rain = 0
KCH1 201758Z 16008KT 08/M03 A3029 RMK A01 T00771032  RH  046%=      5-min Rain = 0
KCH1 201759Z 17007KT 08/M03 A3029 RMK A01 T00791033  RH  045%=      5-min Rain = 0
KCH1 201800Z 17008KT 08/M03 A3029 RMK A01 T00791030  RH  046%=      5-min Rain = 0
KCH1 201801Z 17008KT 08/M03 A3029 RMK A01 T00801032  RH  045%=      5-min Rain = 0
KCH1 201802Z 17008KT 08/M03 A3029 RMK A01 T00801032  RH  045%=      5-min Rain = 0
KCH1 201803Z 16008KT 08/M03 A3029 RMK A01 T00811031  RH  045%=      5-min Rain = 0
KCH1 201804Z 17008KT 08/M03 A3028 RMK A01 T00801032  RH  045%=      5-min Rain = 0
KCH1 201805Z 16009KT 08/M03 A3028 RMK A01 T00801031  RH  046%=      5-min Rain = 0
KCH1 201806Z 13008KT 08/M03 A3028 RMK A01 T00801030  RH  046%=      5-min Rain = 0
KCH1 201807Z 14009KT 08/M03 A3028 RMK A01 T00831027  RH  046%=      5-min Rain = 0
KCH1 201808Z 15008KT 08/M03 A3028 RMK A01 T00841029  RH  045%=      5-min Rain = 0
KCH1 201809Z 16008KT 08/M03 A3028 RMK A01 T00831029  RH  045%=      5-min Rain = 0
KCH1 201810Z 15007KT 08/M03 A3028 RMK A01 T00831029  RH  045%=      5-min Rain = 0
KCH1 201811Z 15006KT 08/M03 A3028 RMK A01 T00831028  RH  045%=      5-min Rain = 0
KCH1 201812Z 16008KT 09/M03 A3028 RMK A01 T00851026  RH  045%=      5-min Rain = 0
KCH1 201813Z 14007KT 09/M03 A3028 RMK A01 T00871025  RH  045%=      5-min Rain = 0
KCH1 201814Z 14008KT 09/M02 A3028 RMK A01 T00891024  RH  045%=      5-min Rain = 0
KCH1 201815Z 16008KT 09/M03 A3028 RMK A01 T00861028  RH  045%=      5-min Rain = 0
KCH1 201816Z 15008KT 09/M03 A3028 RMK A01 T00851026  RH  046%=      5-min Rain = 0
KCH1 201817Z 15008KT 09/M03 A3028 RMK A01 T00861026  RH  045%=      5-min Rain = 0
KCH1 201818Z 14007KT 09/M03 A3027 RMK A01 T00861026  RH  045%=      5-min Rain = 0
KCH1 201819Z 15008KT 09/M02 A3027 RMK A01 T00871024  RH  045%=      5-min Rain = 0
KCH1 201820Z 16007KT 09/M02 A3027 RMK A01 T00891024  RH  045%=      5-min Rain = 0
KCH1 201821Z 16008KT 09/M03 A3027 RMK A01 T00891026  RH  044%=      5-min Rain = 0
KCH1 201822Z 15007KT 09/M02 A3027 RMK A01 T00891024  RH  045%=      5-min Rain = 0
KCH1 201823Z 17007KT 09/M02 A3027 RMK A01 T00911022  RH  045%=      5-min Rain = 0
KCH1 201824Z 16007KT 09/M03 A3027 RMK A01 T00921025  RH  044%=      5-min Rain = 0
KCH1 201825Z 16009KT 09/M02 A3027 RMK A01 T00911024  RH  044%=      5-min Rain = 0
KCH1 201826Z 15009KT 09/M02 A3027 RMK A01 T00901024  RH  045%=      5-min Rain = 0
KCH1 201827Z 15008KT 09/M03 A3027 RMK A01 T00891025  RH  045%=      5-min Rain = 0
KCH1 201828Z 14008KT 09/M03 A3027 RMK A01 T00881026  RH  045%=      5-min Rain = 0
KCH1 201829Z 15009KT 09/M02 A3027 RMK A01 T00881024  RH  045%=      5-min Rain = 0
KCH1 201830Z 16008KT 09/M02 A3027 RMK A01 T00911020  RH  046%=      5-min Rain = 0
KCH1 201831Z 15007KT 09/M02 A3027 RMK A01 T00921022  RH  045%=      5-min Rain = 0
KCH1 201832Z 15008KT 09/M02 A3027 RMK A01 T00931022  RH  044%=      5-min Rain = 0
KCH1 201833Z 14005KT 09/M02 A3027 RMK A01 T00921022  RH  045%=      5-min Rain = 0
KCH1 201834Z 18007KT 10/M02 A3027 RMK A01 T00951019  RH  045%=      5-min Rain = 0
KCH1 201835Z 18008KT 10/M02 A3027 RMK A01 T00961022  RH  044%=      5-min Rain = 0
KCH1 201836Z 16007KT 10/M02 A3027 RMK A01 T00951021  RH  044%=      5-min Rain = 0
KCH1 201837Z 15009KT 10/M02 A3026 RMK A01 T00961021  RH  044%=      5-min Rain = 0
KCH1 201838Z 17008KT 10/M02 A3026 RMK A01 T00951022  RH  044%=      5-min Rain = 0
KCH1 201839Z 19008KT 10/M02 A3026 RMK A01 T00951023  RH  043%=      5-min Rain = 0
KCH1 201840Z 18007KT 09/M03 A3026 RMK A01 T00921025  RH  044%=      5-min Rain = 0
KCH1 201841Z 17008KT 09/M02 A3026 RMK A01 T00921023  RH  044%=      5-min Rain = 0
KCH1 201842Z 15007KT 10/M02 A3026 RMK A01 T00961018  RH  045%=      5-min Rain = 0
KCH1 201843Z 16007KT 10/M02 A3026 RMK A01 T01021017  RH  043%=      5-min Rain = 0
KCH1 201844Z 18009KT 10/M02 A3026 RMK A01 T01041020  RH  042%=      5-min Rain = 0
KCH1 201845Z 16007KT 10/M02 A3026 RMK A01 T01001024  RH  042%=      5-min Rain = 0
KCH1 201846Z 17004KT 10/M02 A3026 RMK A01 T00961023  RH  043%=      5-min Rain = 0
KCH1 201847Z 20005KT 10/M02 A3026 RMK A01 T00971022  RH  043%=      5-min Rain = 0
KCH1 201848Z 16007KT 10/M02 A3026 RMK A01 T00981020  RH  044%=      5-min Rain = 0
KCH1 201849Z 15007KT 10/M02 A3026 RMK A01 T01001020  RH  043%=      5-min Rain = 0
KCH1 201850Z 16007KT 10/M02 A3026 RMK A01 T01021021  RH  042%=      5-min Rain = 0
KCH1 201851Z 15006KT 10/M02 A3026 RMK A01 T01011022  RH  042%=      5-min Rain = 0
KCH1 201852Z 14007KT 10/M02 A3026 RMK A01 T01011022  RH  042%=      5-min Rain = 0
KCH1 201853Z 15007KT 10/M02 A3026 RMK A01 T01011022  RH  042%=      5-min Rain = 0
KCH1 201854Z 15005KT 10/M02 A3026 RMK A01 T00991024  RH  042%=      5-min Rain = 0
KCH1 201855Z 15003KT 10/M02 A3026 RMK A01 T00991020  RH  043%=      5-min Rain = 0
KCH1 201856Z 17005KT 10/M02 A3025 RMK A01 T01031019  RH  043%=      5-min Rain = 0
KCH1 201857Z 16005KT 11/M02 A3025 RMK A01 T01051017  RH  042%=      5-min Rain = 0
KCH1 201858Z 14005KT 11/M02 A3025 RMK A01 T01071019  RH  041%=      5-min Rain = 0
KCH1 201859Z 16006KT 11/M02 A3025 RMK A01 T01081017  RH  042%=      5-min Rain = 0
KCH1 201900Z 20008KT 11/M02 A3025 RMK A01 T01101020  RH  040%=      5-min Rain = 0
KCH1 201901Z 20007KT 11/M02 A3025 RMK A01 T01081024  RH  040%=      5-min Rain = 0
KCH1 201902Z 18009KT 11/M03 A3025 RMK A01 T01051026  RH  040%=      5-min Rain = 0
KCH1 201903Z 18009KT 10/M03 A3025 RMK A01 T01041026  RH  040%=      5-min Rain = 0
KCH1 201904Z 20007KT 10/M03 A3025 RMK A01 T01041025  RH  040%=      5-min Rain = 0
KCH1 201905Z 20008KT 11/M02 A3025 RMK A01 T01061020  RH  041%=      5-min Rain = 0
KCH1 201906Z 21009KT 11/M02 A3025 RMK A01 T01081023  RH  040%=      5-min Rain = 0
KCH1 201907Z 20006KT 10/M03 A3025 RMK A01 T01041027  RH  040%=      5-min Rain = 0
KCH1 201908Z 18007KT 10/M03 A3025 RMK A01 T01031025  RH  041%=      5-min Rain = 0
KCH1 201909Z 18009KT 11/M02 A3025 RMK A01 T01051024  RH  040%=      5-min Rain = 0
KCH1 201910Z 17011KT 11/M03 A3024 RMK A01 T01061025  RH  040%=      5-min Rain = 0
KCH1 201911Z 18007KT 11/M03 A3024 RMK A01 T01061026  RH  040%=      5-min Rain = 0
KCH1 201912Z 18007KT 11/M02 A3024 RMK A01 T01071022  RH  040%=      5-min Rain = 0
KCH1 201913Z 20010KT 11/M03 A3024 RMK A01 T01071026  RH  039%=      5-min Rain = 0
KCH1 201914Z 19007KT 11/M02 A3024 RMK A01 T01071022  RH  040%=      5-min Rain = 0
KCH1 201915Z 20008KT 11/M02 A3024 RMK A01 T01091020  RH  040%=      5-min Rain = 0
KCH1 201916Z 21007KT 11/M02 A3024 RMK A01 T01101022  RH  040%=      5-min Rain = 0
KCH1 201917Z 20006G11KT 11/M02 A3024 RMK A01 T01101021  RH  040%=      5-min Rain = 0
KCH1 201918Z 19011KT 11/M02 A3024 RMK A01 T01131018  RH  040%=      5-min Rain = 0
KCH1 201919Z 18009KT 11/M02 A3024 RMK A01 T01131023  RH  039%=      5-min Rain = 0
KCH1 201920Z 18008KT 11/M02 A3024 RMK A01 T01111022  RH  039%=      5-min Rain = 0
KCH1 201921Z 17009KT 11/M02 A3024 RMK A01 T01111023  RH  039%=      5-min Rain = 0
KCH1 201922Z 18008KT 11/M02 A3024 RMK A01 T01121020  RH  040%=      5-min Rain = 0
KCH1 201923Z 16008KT 11/M02 A3024 RMK A01 T01141021  RH  039%=      5-min Rain = 0
KCH1 201924Z 17007KT 12/M02 A3024 RMK A01 T01151021  RH  039%=      5-min Rain = 0
KCH1 201925Z 21007KT 12/M02 A3024 RMK A01 T01151019  RH  039%=      5-min Rain = 0
KCH1 201926Z 22005KT 12/M02 A3024 RMK A01 T01161020  RH  039%=      5-min Rain = 0
KCH1 201927Z 20007KT 12/M02 A3024 RMK A01 T01161019  RH  039%=      5-min Rain = 0
KCH1 201928Z 19008KT 12/M02 A3024 RMK A01 T01161019  RH  039%=      5-min Rain = 0
KCH1 201929Z 17008KT 12/M02 A3023 RMK A01 T01171020  RH  039%=      5-min Rain = 0
KCH1 201930Z 16005KT 12/M02 A3023 RMK A01 T01161021  RH  038%=      5-min Rain = 0
KCH1 201931Z 20006KT 12/M02 A3023 RMK A01 T01161020  RH  039%=      5-min Rain = 0
KCH1 201932Z 18005KT 12/M02 A3023 RMK A01 T01161019  RH  039%=      5-min Rain = 0
KCH1 201933Z 19008KT 12/M02 A3023 RMK A01 T01181016  RH  039%=      5-min Rain = 0
KCH1 201934Z 19009KT 12/M02 A3023 RMK A01 T01191016  RH  039%=      5-min Rain = 0
KCH1 201935Z 19010KT 12/M02 A3023 RMK A01 T01191018  RH  038%=      5-min Rain = 0
KCH1 201936Z 18008KT 12/M02 A3023 RMK A01 T01171020  RH  038%=      5-min Rain = 0
KCH1 201937Z 20006KT 12/M02 A3023 RMK A01 T01161017  RH  039%=      5-min Rain = 0
KCH1 201938Z 21006KT 12/M02 A3023 RMK A01 T01171017  RH  039%=      5-min Rain = 0
KCH1 201939Z 20008KT 12/M02 A3022 RMK A01 T01181017  RH  039%=      5-min Rain = 0
KCH1 201940Z 20006KT 12/M02 A3022 RMK A01 T01181017  RH  039%=      5-min Rain = 0
KCH1 201941Z 19005KT 12/M02 A3022 RMK A01 T01181015  RH  040%=      5-min Rain = 0
KCH1 201942Z 19011KT 12/M02 A3022 RMK A01 T01201015  RH  039%=      5-min Rain = 0
KCH1 201943Z 18010KT 12/M02 A3022 RMK A01 T01181017  RH  039%=      5-min Rain = 0
KCH1 201944Z 20008KT 12/M02 A3022 RMK A01 T01181016  RH  039%=      5-min Rain = 0
KCH1 201945Z 20007KT 12/M02 A3022 RMK A01 T01191016  RH  039%=      5-min Rain = 0
KCH1 201946Z 20005KT 12/M02 A3022 RMK A01 T01191016  RH  039%=      5-min Rain = 0
KCH1 201947Z 19004KT 12/M02 A3022 RMK A01 T01191015  RH  039%=      5-min Rain = 0
KCH1 201948Z 18006KT 12/M01 A3021 RMK A01 T01211012  RH  040%=      5-min Rain = 0
KCH1 201949Z 18007KT 12/M01 A3021 RMK A01 T01231014  RH  039%=      5-min Rain = 0
KCH1 201950Z 19006G11KT 12/M01 A3021 RMK A01 T01231012  RH  039%=      5-min Rain = 0
KCH1 201951Z 18009KT 13/M01 A3021 RMK A01 T01251010  RH  039%=      5-min Rain = 0
KCH1 201952Z 18007KT 13/M01 A3021 RMK A01 T01251014  RH  038%=      5-min Rain = 0
KCH1 201953Z 18009KT 12/M01 A3021 RMK A01 T01231012  RH  039%=      5-min Rain = 0
KCH1 201954Z 16009KT 12/M01 A3021 RMK A01 T01231013  RH  039%=      5-min Rain = 0
KCH1 201955Z 15009KT 12/M01 A3021 RMK A01 T01231012  RH  039%=      5-min Rain = 0
KCH1 201956Z 18008KT 13/M01 A3021 RMK A01 T01261009  RH  039%=      5-min Rain = 0
KCH1 201957Z 19006KT 13/M01 A3021 RMK A01 T01271010  RH  039%=      5-min Rain = 0
KCH1 201958Z 19009KT 13/M01 A302 RMK A01 T01271009  RH  039%=      5-min Rain = 0
KCH1 201959Z 18011KT 13/M01 A302 RMK A01 T01271010  RH  039%=      5-min Rain = 0
KCH1 202000Z 18010KT 13/M01 A302 RMK A01 T01271010  RH  039%=      5-min Rain = 0
KCH1 202001Z 19009KT 13/M01 A302 RMK A01 T01281009  RH  039%=      5-min Rain = 0
KCH1 202002Z 17007KT 13/M01 A302 RMK A01 T01291008  RH  039%=      5-min Rain = 0
KCH1 202003Z 18009KT 13/M01 A302 RMK A01 T01301007  RH  039%=      5-min Rain = 0
KCH1 202004Z 18009KT 13/M01 A302 RMK A01 T01301009  RH  038%=      5-min Rain = 0
KCH1 202005Z 19007KT 13/M01 A302 RMK A01 T01291009  RH  038%=      5-min Rain = 0
KCH1 202006Z 19007KT 13/M01 A302 RMK A01 T01301006  RH  039%=      5-min Rain = 0
KCH1 202007Z 19008KT 13/M00 A302 RMK A01 T01331002  RH  039%=      5-min Rain = 0
KCH1 202008Z 21008KT 14/M01 A302 RMK A01 T01351007  RH  038%=      5-min Rain = 0
KCH1 202009Z 20005KT 13/M01 A302 RMK A01 T01321006  RH  038%=      5-min Rain = 0
KCH1 202010Z 21005KT 13/M00 A3019 RMK A01 T01331002  RH  039%=      5-min Rain = 0
KCH1 202011Z 19006KT 14/M01 A3019 RMK A01 T01351006  RH  038%=      5-min Rain = 0
KCH1 202012Z 18009KT 14/M01 A3019 RMK A01 T01351005  RH  038%=      5-min Rain = 0
KCH1 202013Z 17008KT 14/M01 A3019 RMK A01 T01351006  RH  038%=      5-min Rain = 0
KCH1 202014Z 18008KT 14/M01 A3019 RMK A01 T01351008  RH  037%=      5-min Rain = 0
KCH1 202015Z 17007KT 14/M01 A3019 RMK A01 T01351006  RH  038%=      5-min Rain = 0
KCH1 202016Z 18006KT 14/M01 A3019 RMK A01 T01351005  RH  038%=      5-min Rain = 0
KCH1 202017Z 19007KT 14/M00 A3019 RMK A01 T01371004  RH  038%=      5-min Rain = 0
KCH1 202018Z 20007KT 14/M01 A3019 RMK A01 T01371005  RH  038%=      5-min Rain = 0
KCH1 202019Z 17007KT 14/M00 A3019 RMK A01 T01351003  RH  039%=      5-min Rain = 0
KCH1 202020Z 17010KT 14/M01 A3018 RMK A01 T01351005  RH  038%=      5-min Rain = 0
KCH1 202021Z 18008KT 13/M01 A3018 RMK A01 T01331005  RH  038%=      5-min Rain = 0
KCH1 202022Z 17006KT 13/M00 A3018 RMK A01 T01331003  RH  039%=      5-min Rain = 0
KCH1 202023Z 15009KT 13/M00 A3018 RMK A01 T01331004  RH  039%=      5-min Rain = 0
KCH1 202024Z 17008KT 13/M01 A3018 RMK A01 T01321005  RH  039%=      5-min Rain = 0
KCH1 202025Z 19010KT 13/M00 A3018 RMK A01 T01321004  RH  039%=      5-min Rain = 0
KCH1 202026Z 18009KT 13/M01 A3018 RMK A01 T01331005  RH  038%=      5-min Rain = 0
KCH1 202027Z 19007KT 13/M01 A3018 RMK A01 T01331006  RH  038%=      5-min Rain = 0
KCH1 202028Z 20005KT 13/M00 A3018 RMK A01 T01331004  RH  039%=      5-min Rain = 0
KCH1 202029Z 18010KT 14/M00 A3018 RMK A01 T01361003  RH  039%=      5-min Rain = 0
KCH1 202030Z 18008KT 14/M00 A3018 RMK A01 T01361002  RH  039%=      5-min Rain = 0
KCH1 202031Z 17008KT 14/M00 A3018 RMK A01 T01381002  RH  038%=      5-min Rain = 0
KCH1 202032Z 16010KT 14/M00 A3017 RMK A01 T01381001  RH  038%=      5-min Rain = 0
KCH1 202033Z 17012KT 14/M00 A3017 RMK A01 T01391002  RH  038%=      5-min Rain = 0
KCH1 202034Z 17012KT 14/M00 A3017 RMK A01 T01381002  RH  038%=      5-min Rain = 0
KCH1 202035Z 17009KT 14/M00 A3017 RMK A01 T01371002  RH  038%=      5-min Rain = 0
KCH1 202036Z 17008KT 14/M00 A3017 RMK A01 T01381002  RH  038%=      5-min Rain = 0
KCH1 202037Z 16007KT 14/M00 A3017 RMK A01 T01391001  RH  038%=      5-min Rain = 0
KCH1 202038Z 18009KT 14/00 A3017 RMK A01 T01410000  RH  038%=      5-min Rain = 0
KCH1 202039Z 17008KT 14/M00 A3017 RMK A01 T01411001  RH  038%=      5-min Rain = 0
KCH1 202040Z 18008KT 14/M00 A3017 RMK A01 T01391002  RH  038%=      5-min Rain = 0
KCH1 202041Z 17007KT 14/00 A3017 RMK A01 T01380000  RH  039%=      5-min Rain = 0
KCH1 202042Z 16008KT 14/00 A3017 RMK A01 T01380001  RH  039%=      5-min Rain = 0
KCH1 202043Z 16008KT 14/00 A3017 RMK A01 T013700-0  RH  039%=      5-min Rain = 0
KCH1 202044Z 18006KT 14/00 A3017 RMK A01 T013600-0  RH  039%=      5-min Rain = 0
KCH1 202045Z 18006KT 14/M00 A3017 RMK A01 T01351001  RH  039%=      5-min Rain = 0
KCH1 202046Z 16008KT 14/00 A3017 RMK A01 T01350000  RH  040%=      5-min Rain = 0
KCH1 202047Z 17008KT 13/M00 A3017 RMK A01 T01341001  RH  039%=      5-min Rain = 0
KCH1 202048Z 16007KT 13/00 A3017 RMK A01 T013300-0  RH  040%=      5-min Rain = 0
KCH1 202049Z 18009KT 13/00 A3017 RMK A01 T01330000  RH  040%=      5-min Rain = 0
KCH1 202050Z 18009KT 13/00 A3017 RMK A01 T01330001  RH  040%=      5-min Rain = 0
KCH1 202051Z 18009KT 13/00 A3017 RMK A01 T013400-0  RH  040%=      5-min Rain = 0
KCH1 202052Z 18007KT 13/00 A3017 RMK A01 T01340000  RH  040%=      5-min Rain = 0
KCH1 202053Z 18008KT 14/00 A3017 RMK A01 T01360001  RH  040%=      5-min Rain = 0
KCH1 202054Z 18005KT 14/M00 A3017 RMK A01 T01361001  RH  039%=      5-min Rain = 0
KCH1 202055Z 18005KT 14/00 A3017 RMK A01 T01360001  RH  040%=      5-min Rain = 0
KCH1 202056Z 17008KT 14/00 A3017 RMK A01 T01370002  RH  039%=      5-min Rain = 0
KCH1 202057Z 17008KT 14/00 A3017 RMK A01 T01380002  RH  039%=      5-min Rain = 0
KCH1 202058Z 18009KT 14/00 A3017 RMK A01 T01380003  RH  040%=      5-min Rain = 0
KCH1 202059Z 19009KT 14/00 A3017 RMK A01 T01380002  RH  039%=      5-min Rain = 0
KCH1 202100Z 18007KT 14/00 A3017 RMK A01 T01360000  RH  039%=      5-min Rain = 0
KCH1 202101Z 18009KT 14/00 A3017 RMK A01 T01360001  RH  040%=      5-min Rain = 0
KCH1 202102Z 20008KT 14/00 A3017 RMK A01 T01350002  RH  040%=      5-min Rain = 0
KCH1 202103Z 18006KT 14/00 A3017 RMK A01 T01350002  RH  040%=      5-min Rain = 0
KCH1 202104Z 16010KT 14/00 A3017 RMK A01 T01360004  RH  040%=      5-min Rain = 0
KCH1 202105Z 17009KT 14/00 A3017 RMK A01 T01370002  RH  040%=      5-min Rain = 0
KCH1 202106Z 18007KT 14/00 A3017 RMK A01 T01370002  RH  040%=      5-min Rain = 0
KCH1 202107Z 17007KT 14/00 A3017 RMK A01 T01370002  RH  040%=      5-min Rain = 0
KCH1 202108Z 17007KT 14/00 A3017 RMK A01 T01380002  RH  039%=      5-min Rain = 0
KCH1 202109Z 17006KT 14/01 A3017 RMK A01 T01410005  RH  039%=      5-min Rain = 0
KCH1 202110Z 17006KT 14/01 A3017 RMK A01 T01420006  RH  039%=      5-min Rain = 0
KCH1 202111Z 18008KT 14/01 A3017 RMK A01 T01440007  RH  039%=      5-min Rain = 0
KCH1 202112Z 18009KT 14/00 A3017 RMK A01 T01430003  RH  038%=      5-min Rain = 0
KCH1 202113Z 19009KT 14/00 A3017 RMK A01 T01410003  RH  039%=      5-min Rain = 0
KCH1 202114Z 19008KT 14/00 A3017 RMK A01 T01400002  RH  039%=      5-min Rain = 0
KCH1 202115Z 17009KT 14/00 A3017 RMK A01 T01390003  RH  039%=      5-min Rain = 0
KCH1 202116Z 17009KT 14/00 A3017 RMK A01 T01400003  RH  039%=      5-min Rain = 0
KCH1 202117Z 18010KT 14/00 A3017 RMK A01 T01410003  RH  039%=      5-min Rain = 0
KCH1 202118Z 18009KT 14/00 A3017 RMK A01 T01410002  RH  039%=      5-min Rain = 0
KCH1 202119Z 17009KT 14/00 A3017 RMK A01 T01410003  RH  039%=      5-min Rain = 0
KCH1 202120Z 18006KT 14/00 A3017 RMK A01 T01420004  RH  039%=      5-min Rain = 0
KCH1 202121Z 18006KT 14/01 A3017 RMK A01 T01420006  RH  039%=      5-min Rain = 0
KCH1 202122Z 18005KT 14/01 A3017 RMK A01 T01440007  RH  039%=      5-min Rain = 0
KCH1 202123Z 18005KT 15/01 A3017 RMK A01 T01450007  RH  039%=      5-min Rain = 0
KCH1 202124Z 18007KT 15/01 A3017 RMK A01 T01460006  RH  039%=      5-min Rain = 0
KCH1 202125Z 18006KT 15/00 A3017 RMK A01 T01450004  RH  038%=      5-min Rain = 0
KCH1 202126Z 19007KT 15/01 A3016 RMK A01 T01450005  RH  038%=      5-min Rain = 0
KCH1 202127Z 17006KT 14/01 A3016 RMK A01 T01440005  RH  039%=      5-min Rain = 0
KCH1 202128Z 17005KT 14/00 A3016 RMK A01 T01440004  RH  038%=      5-min Rain = 0
KCH1 202129Z 18005KT 15/01 A3016 RMK A01 T01460008  RH  039%=      5-min Rain = 0
KCH1 202130Z 17008KT 15/00 A3016 RMK A01 T01470004  RH  038%=      5-min Rain = 0
KCH1 202131Z 18010KT 15/00 A3016 RMK A01 T01460003  RH  038%=      5-min Rain = 0
KCH1 202132Z 17006KT 15/01 A3016 RMK A01 T01450005  RH  038%=      5-min Rain = 0
KCH1 202133Z 17005KT 15/01 A3016 RMK A01 T01460006  RH  038%=      5-min Rain = 0
KCH1 202134Z 18007KT 15/01 A3016 RMK A01 T01490008  RH  038%=      5-min Rain = 0
KCH1 202135Z 19008KT 15/00 A3016 RMK A01 T01500004  RH  037%=      5-min Rain = 0
KCH1 202136Z 19008KT 15/01 A3016 RMK A01 T01490005  RH  037%=      5-min Rain = 0
KCH1 202137Z 18009KT 15/00 A3016 RMK A01 T01480004  RH  037%=      5-min Rain = 0
KCH1 202138Z 19006KT 15/01 A3016 RMK A01 T01470006  RH  038%=      5-min Rain = 0
KCH1 202139Z 19008KT 15/01 A3016 RMK A01 T01470006  RH  038%=      5-min Rain = 0
KCH1 202140Z 19008KT 15/00 A3016 RMK A01 T01470004  RH  038%=      5-min Rain = 0
KCH1 202141Z 20008KT 15/01 A3016 RMK A01 T01460005  RH  038%=      5-min Rain = 0
KCH1 202142Z 19007KT 15/01 A3016 RMK A01 T01450005  RH  038%=      5-min Rain = 0
KCH1 202143Z 19007KT 14/01 A3016 RMK A01 T01440005  RH  039%=      5-min Rain = 0
KCH1 202144Z 16006KT 14/01 A3016 RMK A01 T01440007  RH  039%=      5-min Rain = 0
KCH1 202145Z 15006KT 14/01 A3016 RMK A01 T01440007  RH  039%=      5-min Rain = 0
KCH1 202146Z 17005KT 14/01 A3016 RMK A01 T01440008  RH  039%=      5-min Rain = 0
KCH1 202147Z 16006KT 15/01 A3016 RMK A01 T01450006  RH  039%=      5-min Rain = 0
KCH1 202148Z 17007KT 15/01 A3016 RMK A01 T01450007  RH  039%=      5-min Rain = 0
KCH1 202149Z 17005KT 15/01 A3016 RMK A01 T01460008  RH  039%=      5-min Rain = 0
KCH1 202150Z 18007KT 15/01 A3016 RMK A01 T01470007  RH  039%=      5-min Rain = 0
KCH1 202151Z 17009KT 15/01 A3016 RMK A01 T01470006  RH  038%=      5-min Rain = 0
KCH1 202152Z 18008KT 15/01 A3016 RMK A01 T01470006  RH  038%=      5-min Rain = 0
KCH1 202153Z 18006KT 15/01 A3016 RMK A01 T01470006  RH  038%=      5-min Rain = 0
KCH1 202154Z 18008KT 15/01 A3016 RMK A01 T01490007  RH  038%=      5-min Rain = 0
KCH1 202155Z 18009KT 15/01 A3016 RMK A01 T01510006  RH  037%=      5-min Rain = 0
KCH1 202156Z 18009KT 15/01 A3016 RMK A01 T01520006  RH  037%=      5-min Rain = 0
KCH1 202157Z 18008KT 15/01 A3016 RMK A01 T01530005  RH  036%=      5-min Rain = 0
KCH1 202158Z 18009KT 15/01 A3016 RMK A01 T01540005  RH  036%=      5-min Rain = 0
KCH1 202159Z 18009KT 15/01 A3016 RMK A01 T01530006  RH  037%=      5-min Rain = 0
KCH1 202200Z 18008KT 15/01 A3016 RMK A01 T01530007  RH  037%=      5-min Rain = 0
KCH1 202201Z 17007KT 15/01 A3015 RMK A01 T01540005  RH  036%=      5-min Rain = 0
KCH1 202202Z 16007KT 15/01 A3015 RMK A01 T01540006  RH  037%=      5-min Rain = 0
KCH1 202203Z 15007KT 16/01 A3015 RMK A01 T01550009  RH  037%=      5-min Rain = 0
KCH1 202204Z 14007KT 16/01 A3015 RMK A01 T01570009  RH  037%=      5-min Rain = 0
KCH1 202205Z 16007KT 16/01 A3015 RMK A01 T01560006  RH  036%=      5-min Rain = 0
KCH1 202206Z 16007KT 16/01 A3015 RMK A01 T01550008  RH  037%=      5-min Rain = 0
KCH1 202207Z 15009KT 16/01 A3015 RMK A01 T01550007  RH  037%=      5-min Rain = 0
KCH1 202208Z 17009KT 15/01 A3015 RMK A01 T01540008  RH  037%=      5-min Rain = 0
KCH1 202209Z 17008KT 15/01 A3015 RMK A01 T01540007  RH  037%=      5-min Rain = 0
KCH1 202210Z 19005KT 15/01 A3015 RMK A01 T01530007  RH  037%=      5-min Rain = 0
KCH1 202211Z 17007KT 15/01 A3015 RMK A01 T01530009  RH  037%=      5-min Rain = 0
KCH1 202212Z 18008KT 15/01 A3015 RMK A01 T01530008  RH  037%=      5-min Rain = 0
KCH1 202213Z 18009KT 15/01 A3015 RMK A01 T01530007  RH  037%=      5-min Rain = 0
KCH1 202214Z 18008KT 15/01 A3015 RMK A01 T01520006  RH  037%=      5-min Rain = 0
KCH1 202215Z 18008KT 15/01 A3015 RMK A01 T01520006  RH  037%=      5-min Rain = 0
KCH1 202216Z 18006KT 15/01 A3015 RMK A01 T01520007  RH  037%=      5-min Rain = 0
KCH1 202217Z 18007KT 15/01 A3015 RMK A01 T01530008  RH  037%=      5-min Rain = 0
KCH1 202218Z 18008KT 15/01 A3015 RMK A01 T01540009  RH  037%=      5-min Rain = 0
KCH1 202219Z 18008KT 16/01 A3015 RMK A01 T01550009  RH  037%=      5-min Rain = 0
KCH1 202220Z 19008KT 16/01 A3015 RMK A01 T01560009  RH  037%=      5-min Rain = 0
KCH1 202221Z 18008KT 16/01 A3015 RMK A01 T01560008  RH  036%=      5-min Rain = 0
KCH1 202222Z 18008KT 16/01 A3015 RMK A01 T01560009  RH  037%=      5-min Rain = 0
KCH1 202223Z 17005KT 16/01 A3015 RMK A01 T01570010  RH  037%=      5-min Rain = 0
KCH1 202224Z 17006KT 16/01 A3015 RMK A01 T01590012  RH  037%=      5-min Rain = 0
KCH1 202225Z 15006KT 16/01 A3014 RMK A01 T01600011  RH  037%=      5-min Rain = 0
KCH1 202226Z 15008KT 16/01 A3014 RMK A01 T01600012  RH  037%=      5-min Rain = 0
KCH1 202227Z 17006KT 16/01 A3014 RMK A01 T01600012  RH  037%=      5-min Rain = 0
KCH1 202228Z 16007KT 16/01 A3014 RMK A01 T01610013  RH  037%=      5-min Rain = 0
KCH1 202229Z 16006KT 16/01 A3014 RMK A01 T01620014  RH  037%=      5-min Rain = 0
KCH1 202230Z 16007KT 16/01 A3014 RMK A01 T01620013  RH  036%=      5-min Rain = 0
KCH1 202231Z 16007KT 16/01 A3014 RMK A01 T01610011  RH  036%=      5-min Rain = 0
KCH1 202232Z 14007KT 16/01 A3014 RMK A01 T01590012  RH  037%=      5-min Rain = 0
KCH1 202233Z 15009KT 16/01 A3014 RMK A01 T01580012  RH  037%=      5-min Rain = 0
KCH1 202234Z 15009KT 16/01 A3014 RMK A01 T01570009  RH  037%=      5-min Rain = 0
KCH1 202235Z 15009KT 16/01 A3014 RMK A01 T01560010  RH  037%=      5-min Rain = 0
KCH1 202236Z 15007KT 16/01 A3014 RMK A01 T01550010  RH  037%=      5-min Rain = 0
KCH1 202237Z 15007KT 16/01 A3014 RMK A01 T01550010  RH  037%=      5-min Rain = 0
KCH1 202238Z 15007KT 16/01 A3014 RMK A01 T01560011  RH  037%=      5-min Rain = 0
KCH1 202239Z 16005KT 16/01 A3014 RMK A01 T01570012  RH  037%=      5-min Rain = 0
KCH1 202240Z 17007KT 16/01 A3014 RMK A01 T01580013  RH  037%=      5-min Rain = 0
KCH1 202241Z 17007KT 16/01 A3014 RMK A01 T01580011  RH  037%=      5-min Rain = 0
KCH1 202242Z 15007KT 16/01 A3014 RMK A01 T01580011  RH  037%=      5-min Rain = 0
KCH1 202243Z 16006KT 16/01 A3014 RMK A01 T01570012  RH  037%=      5-min Rain = 0
KCH1 202244Z 17009KT 16/01 A3014 RMK A01 T01580012  RH  037%=      5-min Rain = 0
KCH1 202245Z 16009KT 16/01 A3014 RMK A01 T01570011  RH  037%=      5-min Rain = 0
KCH1 202246Z 16008KT 16/01 A3014 RMK A01 T01570009  RH  036%=      5-min Rain = 0
KCH1 202247Z 17008KT 16/01 A3013 RMK A01 T01570009  RH  037%=      5-min Rain = 0
KCH1 202248Z 17007KT 16/01 A3013 RMK A01 T01570010  RH  037%=      5-min Rain = 0
KCH1 202249Z 17008KT 16/01 A3013 RMK A01 T01560009  RH  037%=      5-min Rain = 0
KCH1 202250Z 17007KT 16/01 A3013 RMK A01 T01560009  RH  037%=      5-min Rain = 0
KCH1 202251Z 17007KT 16/01 A3013 RMK A01 T01560009  RH  037%=      5-min Rain = 0
KCH1 202252Z 17007KT 16/01 A3013 RMK A01 T01550010  RH  037%=      5-min Rain = 0
KCH1 202253Z 17007KT 16/01 A3013 RMK A01 T01550009  RH  037%=      5-min Rain = 0
KCH1 202254Z 17008KT 16/01 A3013 RMK A01 T01550007  RH  037%=      5-min Rain = 0
KCH1 202255Z 17008KT 16/01 A3013 RMK A01 T01550005  RH  036%=      5-min Rain = 0
KCH1 202256Z 17008KT 16/00 A3013 RMK A01 T01550004  RH  036%=      5-min Rain = 0
KCH1 202257Z 17008KT 16/01 A3013 RMK A01 T01560005  RH  036%=      5-min Rain = 0
KCH1 202258Z 17009KT 16/01 A3013 RMK A01 T01560005  RH  036%=      5-min Rain = 0
KCH1 202259Z 17006KT 16/01 A3013 RMK A01 T01560005  RH  036%=      5-min Rain = 0
KCH1 202300Z 18006KT 16/01 A3013 RMK A01 T01560007  RH  036%=      5-min Rain = 0
KCH1 202301Z 19007KT 16/01 A3013 RMK A01 T01560007  RH  036%=      5-min Rain = 0
KCH1 202302Z 18008KT 16/01 A3013 RMK A01 T01550007  RH  036%=      5-min Rain = 0
KCH1 202303Z 18008KT 16/01 A3013 RMK A01 T01550005  RH  036%=      5-min Rain = 0
KCH1 202304Z 18008KT 16/00 A3013 RMK A01 T01550004  RH  036%=      5-min Rain = 0
KCH1 202305Z 17006KT 16/01 A3013 RMK A01 T01550005  RH  036%=      5-min Rain = 0
KCH1 202306Z 18008KT 16/01 A3013 RMK A01 T01550005  RH  036%=      5-min Rain = 0
KCH1 202307Z 18008KT 16/01 A3013 RMK A01 T01560005  RH  036%=      5-min Rain = 0
KCH1 202308Z 18008KT 16/01 A3013 RMK A01 T01570005  RH  035%=      5-min Rain = 0
KCH1 202309Z 17008KT 16/00 A3013 RMK A01 T01570004  RH  035%=      5-min Rain = 0
KCH1 202310Z 17009KT 16/00 A3013 RMK A01 T01570004  RH  035%=      5-min Rain = 0
KCH1 202311Z 18009KT 16/00 A3013 RMK A01 T01580003  RH  035%=      5-min Rain = 0
KCH1 202312Z 17007KT 16/00 A3013 RMK A01 T01580004  RH  035%=      5-min Rain = 0
KCH1 202313Z 18009KT 16/00 A3013 RMK A01 T01580003  RH  035%=      5-min Rain = 0
KCH1 202314Z 18009KT 16/00 A3013 RMK A01 T01580001  RH  034%=      5-min Rain = 0
KCH1 202315Z 18007KT 16/00 A3013 RMK A01 T01570002  RH  035%=      5-min Rain = 0
KCH1 202316Z 18007KT 16/00 A3013 RMK A01 T01570003  RH  035%=      5-min Rain = 0
KCH1 202317Z 17007KT 16/00 A3013 RMK A01 T01560003  RH  035%=      5-min Rain = 0
KCH1 202318Z 17007KT 16/00 A3013 RMK A01 T01560002  RH  035%=      5-min Rain = 0
KCH1 202319Z 17008KT 16/00 A3013 RMK A01 T01560003  RH  035%=      5-min Rain = 0
KCH1 202320Z 17009KT 16/00 A3012 RMK A01 T01550002  RH  035%=      5-min Rain = 0
KCH1 202321Z 17009KT 15/00 A3012 RMK A01 T01540002  RH  036%=      5-min Rain = 0
KCH1 202322Z 17008KT 15/00 A3012 RMK A01 T01530002  RH  036%=      5-min Rain = 0
KCH1 202323Z 17007KT 15/00 A3012 RMK A01 T01530002  RH  036%=      5-min Rain = 0
KCH1 202324Z 17007KT 15/00 A3012 RMK A01 T01530002  RH  036%=      5-min Rain = 0
KCH1 202325Z 17007KT 15/00 A3012 RMK A01 T01530002  RH  036%=      5-min Rain = 0
KCH1 202326Z 17008KT 15/00 A3012 RMK A01 T01530002  RH  036%=      5-min Rain = 0
KCH1 202327Z 15007KT 15/00 A3012 RMK A01 T01530003  RH  036%=      5-min Rain = 0
KCH1 202328Z 14007KT 15/01 A3012 RMK A01 T01520006  RH  037%=      5-min Rain = 0
KCH1 202329Z 13008KT 15/01 A3012 RMK A01 T01500008  RH  038%=      5-min Rain = 0
KCH1 202330Z 13006KT 15/01 A3012 RMK A01 T01470009  RH  039%=      5-min Rain = 0
KCH1 202331Z 13005KT 15/01 A3012 RMK A01 T01450010  RH  040%=      5-min Rain = 0
KCH1 202332Z 14006KT 14/01 A3012 RMK A01 T01430011  RH  040%=      5-min Rain = 0
KCH1 202333Z 13006KT 14/01 A3012 RMK A01 T01420011  RH  041%=      5-min Rain = 0
KCH1 202334Z 13006KT 14/01 A3012 RMK A01 T01410011  RH  041%=      5-min Rain = 0
KCH1 202335Z 14005KT 14/01 A3012 RMK A01 T01400012  RH  042%=      5-min Rain = 0
KCH1 202336Z 13005KT 14/01 A3012 RMK A01 T01390012  RH  042%=      5-min Rain = 0
KCH1 202337Z 13005KT 14/01 A3012 RMK A01 T01380012  RH  042%=      5-min Rain = 0
KCH1 202338Z 13005KT 14/01 A3012 RMK A01 T01370012  RH  043%=      5-min Rain = 0
KCH1 202339Z 13006KT 14/01 A3012 RMK A01 T01360012  RH  043%=      5-min Rain = 0
KCH1 202340Z 13006KT 13/01 A3012 RMK A01 T01340012  RH  043%=      5-min Rain = 0
KCH1 202341Z 12006KT 13/01 A3012 RMK A01 T01330013  RH  044%=      5-min Rain = 0
KCH1 202342Z 12006KT 13/01 A3012 RMK A01 T01320013  RH  044%=      5-min Rain = 0
KCH1 202343Z 12005KT 13/01 A3012 RMK A01 T01310013  RH  044%=      5-min Rain = 0
KCH1 202344Z 12005KT 13/01 A3012 RMK A01 T01300013  RH  045%=      5-min Rain = 0
KCH1 202345Z 12006KT 13/01 A3012 RMK A01 T01290013  RH  045%=      5-min Rain = 0
KCH1 202346Z 13006KT 13/01 A3012 RMK A01 T01290013  RH  045%=      5-min Rain = 0
KCH1 202347Z 13005KT 13/01 A3012 RMK A01 T01290013  RH  045%=      5-min Rain = 0
KCH1 202348Z 13006KT 13/01 A3012 RMK A01 T01280012  RH  045%=      5-min Rain = 0
KCH1 202349Z 13006KT 13/01 A3012 RMK A01 T01270012  RH  045%=      5-min Rain = 0
KCH1 202350Z 13005KT 13/01 A3012 RMK A01 T01260013  RH  046%=      5-min Rain = 0
KCH1 202351Z 13004KT 13/01 A3012 RMK A01 T01250013  RH  046%=      5-min Rain = 0
KCH1 202352Z 13005KT 13/01 A3012 RMK A01 T01250013  RH  046%=      5-min Rain = 0
KCH1 202353Z 13006KT 12/01 A3012 RMK A01 T01240012  RH  047%=      5-min Rain = 0
KCH1 202354Z 14005KT 12/01 A3012 RMK A01 T01230012  RH  047%=      5-min Rain = 0
KCH1 202355Z 14005KT 12/01 A3012 RMK A01 T01230013  RH  047%=      5-min Rain = 0
KCH1 202356Z 14006KT 12/01 A3012 RMK A01 T01230013  RH  047%=      5-min Rain = 0
KCH1 202357Z 13005KT 12/01 A3012 RMK A01 T01220013  RH  047%=      5-min Rain = 0
KCH1 202358Z 13005KT 12/01 A3012 RMK A01 T01220013  RH  047%=      5-min Rain = 0
KCH1 202359Z 14005KT 12/01 A3012 RMK A01 T01220013  RH  047%=      5-min Rain = 0
KCH1 210000Z 13005KT 12/01 A3012 RMK A01 T01200013  RH  048%=      5-min Rain = 0
KCH1 210001Z 13006KT 12/01 A3012 RMK A01 T01200013  RH  048%=      5-min Rain = 0
KCH1 210002Z 13005KT 12/01 A3012 RMK A01 T01190013  RH  048%=      5-min Rain = 0
KCH1 210003Z 12005KT 12/01 A3012 RMK A01 T01170013  RH  049%=      5-min Rain = 0
KCH1 210004Z 13005KT 12/01 A3012 RMK A01 T01160013  RH  049%=      5-min Rain = 0
KCH1 210005Z 13005KT 12/01 A3012 RMK A01 T01150013  RH  049%=      5-min Rain = 0
KCH1 210006Z 13006KT 12/01 A3012 RMK A01 T01150013  RH  050%=      5-min Rain = 0
KCH1 210007Z 13005KT 12/01 A3012 RMK A01 T01150013  RH  050%=      5-min Rain = 0
KCH1 210008Z 13005KT 11/01 A3012 RMK A01 T01140013  RH  050%=      5-min Rain = 0
KCH1 210009Z 13005KT 11/01 A3012 RMK A01 T01130013  RH  050%=      5-min Rain = 0
KCH1 210010Z 13005KT 11/01 A3012 RMK A01 T01130013  RH  050%=      5-min Rain = 0
KCH1 210011Z 13005KT 11/01 A3012 RMK A01 T01130013  RH  050%=      5-min Rain = 0
KCH1 210012Z 13005KT 11/01 A3012 RMK A01 T01120012  RH  050%=      5-min Rain = 0
KCH1 210013Z 14006KT 11/01 A3012 RMK A01 T01120013  RH  050%=      5-min Rain = 0
KCH1 210014Z 14005KT 11/01 A3012 RMK A01 T01110012  RH  050%=      5-min Rain = 0
KCH1 210015Z 14006KT 11/01 A3011 RMK A01 T01110012  RH  051%=      5-min Rain = 0
KCH1 210016Z 13006KT 11/01 A3011 RMK A01 T01100012  RH  051%=      5-min Rain = 0
KCH1 210017Z 14006KT 11/01 A3011 RMK A01 T01090012  RH  051%=      5-min Rain = 0
KCH1 210018Z 16006KT 11/01 A3011 RMK A01 T01090012  RH  051%=      5-min Rain = 0
KCH1 210019Z 15005KT 11/01 A3011 RMK A01 T01090012  RH  051%=      5-min Rain = 0
KCH1 210020Z 15005KT 11/01 A3011 RMK A01 T01090012  RH  051%=      5-min Rain = 0
KCH1 210021Z 16005KT 11/01 A3011 RMK A01 T01090012  RH  051%=      5-min Rain = 0
KCH1 210022Z 16005KT 11/01 A3011 RMK A01 T01090012  RH  051%=      5-min Rain = 0
KCH1 210023Z 15005KT 11/01 A3011 RMK A01 T01090012  RH  051%=      5-min Rain = 0
KCH1 210024Z 17005KT 11/01 A3012 RMK A01 T01090012  RH  051%=      5-min Rain = 0
KCH1 210025Z 18004KT 11/01 A3012 RMK A01 T01080013  RH  052%=      5-min Rain = 0
KCH1 210026Z 16005KT 11/01 A3012 RMK A01 T01080014  RH  052%=      5-min Rain = 0
KCH1 210027Z 16004KT 11/01 A3012 RMK A01 T01070013  RH  052%=      5-min Rain = 0
KCH1 210028Z 16004KT 11/01 A3012 RMK A01 T01070013  RH  052%=      5-min Rain = 0
KCH1 210029Z 16004KT 11/01 A3012 RMK A01 T01070013  RH  052%=      5-min Rain = 0
KCH1 210030Z 16004KT 11/01 A3012 RMK A01 T01070013  RH  052%=      5-min Rain = 0
KCH1 210031Z 16005KT 11/01 A3012 RMK A01 T01070012  RH  052%=      5-min Rain = 0
KCH1 210032Z 16005KT 11/01 A3012 RMK A01 T01070012  RH  052%=      5-min Rain = 0
KCH1 210033Z 16005KT 11/01 A3012 RMK A01 T01070012  RH  052%=      5-min Rain = 0
KCH1 210034Z 16004KT 11/01 A3012 RMK A01 T01070012  RH  052%=      5-min Rain = 0
KCH1 210035Z 16005KT 11/01 A3012 RMK A01 T01070012  RH  052%=      5-min Rain = 0
KCH1 210036Z 16005KT 11/01 A3012 RMK A01 T01070012  RH  052%=      5-min Rain = 0
KCH1 210037Z 15004KT 11/01 A3012 RMK A01 T01060012  RH  052%=      5-min Rain = 0
KCH1 210038Z 16005KT 11/01 A3012 RMK A01 T01060012  RH  052%=      5-min Rain = 0
KCH1 210039Z 17004KT 11/01 A3012 RMK A01 T01060013  RH  052%=      5-min Rain = 0
KCH1 210040Z 16004KT 11/01 A3012 RMK A01 T01060013  RH  053%=      5-min Rain = 0
KCH1 210041Z 16004KT 11/01 A3012 RMK A01 T01050013  RH  053%=      5-min Rain = 0
KCH1 210042Z 15005KT 11/01 A3012 RMK A01 T01050013  RH  053%=      5-min Rain = 0
KCH1 210043Z 15005KT 11/01 A3012 RMK A01 T01060013  RH  053%=      5-min Rain = 0
KCH1 210044Z 15004KT 11/01 A3012 RMK A01 T01050013  RH  053%=      5-min Rain = 0
KCH1 210045Z 15004KT 11/01 A3012 RMK A01 T01050012  RH  053%=      5-min Rain = 0
KCH1 210046Z 16005KT 11/01 A3013 RMK A01 T01050012  RH  053%=      5-min Rain = 0
KCH1 210047Z 15004KT 11/01 A3013 RMK A01 T01050012  RH  053%=      5-min Rain = 0
KCH1 210048Z 16004KT 11/01 A3013 RMK A01 T01050012  RH  053%=      5-min Rain = 0
KCH1 210049Z 16004KT 11/01 A3013 RMK A01 T01050012  RH  053%=      5-min Rain = 0
KCH1 210050Z 15004KT 11/01 A3013 RMK A01 T01050012  RH  053%=      5-min Rain = 0
KCH1 210051Z 16004KT 11/01 A3013 RMK A01 T01050012  RH  053%=      5-min Rain = 0
KCH1 210052Z 16004KT 11/01 A3013 RMK A01 T01050012  RH  053%=      5-min Rain = 0
KCH1 210053Z 16003KT 10/01 A3013 RMK A01 T01040011  RH  053%=      5-min Rain = 0
KCH1 210054Z 16004KT 11/01 A3013 RMK A01 T01050012  RH  052%=      5-min Rain = 0
KCH1 210055Z 16004KT 11/01 A3013 RMK A01 T01050012  RH  052%=      5-min Rain = 0
KCH1 210056Z 17004KT 11/01 A3013 RMK A01 T01050011  RH  052%=      5-min Rain = 0
KCH1 210057Z 17004KT 11/01 A3013 RMK A01 T01060012  RH  052%=      5-min Rain = 0
KCH1 210058Z 17004KT 11/01 A3013 RMK A01 T01060012  RH  052%=      5-min Rain = 0
KCH1 210059Z 17004KT 11/01 A3013 RMK A01 T01050012  RH  053%=      5-min Rain = 0
KCH1 210100Z 17004KT 11/01 A3013 RMK A01 T01050012  RH  053%=      5-min Rain = 0
KCH1 210101Z 17004KT 11/01 A3013 RMK A01 T01050012  RH  053%=      5-min Rain = 0
KCH1 210102Z 17004KT 10/01 A3012 RMK A01 T01040012  RH  053%=      5-min Rain = 0
KCH1 210103Z 17004KT 10/01 A3012 RMK A01 T01040012  RH  053%=      5-min Rain = 0
KCH1 210104Z 17005KT 10/01 A3012 RMK A01 T01040013  RH  053%=      5-min Rain = 0
KCH1 210105Z 17005KT 10/01 A3012 RMK A01 T01030013  RH  053%=      5-min Rain = 0
KCH1 210106Z 17005KT 10/01 A3012 RMK A01 T01020013  RH  054%=      5-min Rain = 0
KCH1 210107Z 17005KT 10/01 A3013 RMK A01 T01020013  RH  054%=      5-min Rain = 0
KCH1 210108Z 17005KT 10/01 A3013 RMK A01 T01010013  RH  054%=      5-min Rain = 0
KCH1 210109Z 18005KT 10/01 A3013 RMK A01 T01000013  RH  054%=      5-min Rain = 0
KCH1 210110Z 17006KT 10/01 A3013 RMK A01 T01010013  RH  054%=      5-min Rain = 0
KCH1 210111Z 17006KT 10/01 A3013 RMK A01 T01000013  RH  054%=      5-min Rain = 0
KCH1 210112Z 18005KT 10/01 A3013 RMK A01 T01000013  RH  054%=      5-min Rain = 0
KCH1 210113Z 18006KT 10/01 A3012 RMK A01 T01000013  RH  055%=      5-min Rain = 0
KCH1 210114Z 18006KT 10/01 A3012 RMK A01 T01000014  RH  055%=      5-min Rain = 0
KCH1 210115Z 18006KT 10/01 A3012 RMK A01 T00990014  RH  055%=      5-min Rain = 0
KCH1 210116Z 19006KT 10/01 A3012 RMK A01 T00990014  RH  055%=      5-min Rain = 0
KCH1 210117Z 19006KT 10/01 A3012 RMK A01 T00990014  RH  055%=      5-min Rain = 0
KCH1 210118Z 19006KT 10/01 A3012 RMK A01 T00990014  RH  055%=      5-min Rain = 0
KCH1 210119Z 19005KT 10/01 A3012 RMK A01 T00980013  RH  055%=      5-min Rain = 0
KCH1 210120Z 19005KT 10/01 A3012 RMK A01 T00990013  RH  055%=      5-min Rain = 0
KCH1 210121Z 19005KT 10/01 A3012 RMK A01 T00990013  RH  055%=      5-min Rain = 0
KCH1 210122Z 20005KT 10/01 A3012 RMK A01 T01000013  RH  055%=      5-min Rain = 0
KCH1 210123Z 20005KT 10/01 A3012 RMK A01 T00990012  RH  055%=      5-min Rain = 0
KCH1 210124Z 19005KT 10/01 A3012 RMK A01 T01000012  RH  055%=      5-min Rain = 0
KCH1 210125Z 19005KT 10/01 A3012 RMK A01 T01000013  RH  055%=      5-min Rain = 0
KCH1 210126Z 18005KT 10/01 A3012 RMK A01 T00990013  RH  055%=      5-min Rain = 0
KCH1 210127Z 18005KT 10/01 A3012 RMK A01 T00970013  RH  056%=      5-min Rain = 0
KCH1 210128Z 18005KT 10/01 A3012 RMK A01 T00960013  RH  056%=      5-min Rain = 0
KCH1 210129Z 18005KT 10/01 A3012 RMK A01 T00950013  RH  056%=      5-min Rain = 0
KCH1 210130Z 18006KT 09/01 A3012 RMK A01 T00940013  RH  057%=      5-min Rain = 0
KCH1 210131Z 19006KT 09/01 A3012 RMK A01 T00930013  RH  057%=      5-min Rain = 0
KCH1 210132Z 19006KT 09/01 A3012 RMK A01 T00930013  RH  057%=      5-min Rain = 0
KCH1 210133Z 18005KT 09/01 A3012 RMK A01 T00930013  RH  057%=      5-min Rain = 0
KCH1 210134Z 18005KT 09/01 A3012 RMK A01 T00930013  RH  058%=      5-min Rain = 0
KCH1 210135Z 19005KT 09/01 A3012 RMK A01 T00930013  RH  058%=      5-min Rain = 0
KCH1 210136Z 19005KT 09/01 A3012 RMK A01 T00920013  RH  058%=      5-min Rain = 0
KCH1 210137Z 18005KT 09/01 A3012 RMK A01 T00920013  RH  058%=      5-min Rain = 0
KCH1 210138Z 17005KT 09/01 A3012 RMK A01 T00910013  RH  058%=      5-min Rain = 0
KCH1 210139Z 17004KT 09/01 A3012 RMK A01 T00910013  RH  058%=      5-min Rain = 0
KCH1 210140Z 17004KT 09/01 A3012 RMK A01 T00910012  RH  058%=      5-min Rain = 0
KCH1 210141Z 17005KT 09/01 A3012 RMK A01 T00890012  RH  058%=      5-min Rain = 0
KCH1 210142Z 17004KT 09/01 A3012 RMK A01 T00870012  RH  059%=      5-min Rain = 0
KCH1 210143Z 17004KT 09/01 A3012 RMK A01 T00860012  RH  060%=      5-min Rain = 0
KCH1 210144Z 17004KT 08/01 A3012 RMK A01 T00840012  RH  060%=      5-min Rain = 0
KCH1 210145Z 18004KT 08/01 A3012 RMK A01 T00830012  RH  061%=      5-min Rain = 0
KCH1 210146Z 17003KT 08/01 A3012 RMK A01 T00810011  RH  061%=      5-min Rain = 0
KCH1 210147Z 17004KT 08/01 A3012 RMK A01 T00800012  RH  062%=      5-min Rain = 0
KCH1 210148Z 16004KT 08/01 A3012 RMK A01 T00790011  RH  062%=      5-min Rain = 0
KCH1 210149Z 16003KT 08/01 A3012 RMK A01 T00790012  RH  063%=      5-min Rain = 0
KCH1 210150Z 15003KT 08/01 A3012 RMK A01 T00770011  RH  063%=      5-min Rain = 0
KCH1 210151Z 15002KT 08/01 A3012 RMK A01 T00760011  RH  063%=      5-min Rain = 0
KCH1 210152Z 14003KT 08/01 A3012 RMK A01 T00750011  RH  064%=      5-min Rain = 0
KCH1 210153Z 14002KT 08/01 A3012 RMK A01 T00750011  RH  064%=      5-min Rain = 0
KCH1 210154Z 14002KT 08/01 A3012 RMK A01 T00750011  RH  064%=      5-min Rain = 0
KCH1 210155Z 13002KT 07/01 A3012 RMK A01 T00740011  RH  064%=      5-min Rain = 0
KCH1 210156Z 13002KT 07/01 A3012 RMK A01 T00730010  RH  064%=      5-min Rain = 0
KCH1 210157Z 13002KT 07/01 A3012 RMK A01 T00730011  RH  065%=      5-min Rain = 0
KCH1 210158Z 14002KT 07/01 A3012 RMK A01 T00720010  RH  065%=      5-min Rain = 0
KCH1 210159Z 14002KT 07/01 A3012 RMK A01 T00720010  RH  065%=      5-min Rain = 0
KCH1 210200Z 15002KT 07/01 A3012 RMK A01 T00720010  RH  065%=      5-min Rain = 0
KCH1 210201Z 15003KT 07/01 A3012 RMK A01 T00710010  RH  065%=      5-min Rain = 0
KCH1 210202Z 14003KT 07/01 A3012 RMK A01 T00720010  RH  065%=      5-min Rain = 0
KCH1 210203Z 15003KT 07/01 A3012 RMK A01 T00720010  RH  065%=      5-min Rain = 0
KCH1 210204Z 14004KT 07/01 A3012 RMK A01 T00720011  RH  065%=      5-min Rain = 0
KCH1 210205Z 15004KT 07/01 A3012 RMK A01 T00720011  RH  065%=      5-min Rain = 0
KCH1 210206Z 15005KT 07/01 A3012 RMK A01 T00730011  RH  065%=      5-min Rain = 0
KCH1 210207Z 16005KT 07/01 A3012 RMK A01 T00730011  RH  065%=      5-min Rain = 0
KCH1 210208Z 16005KT 07/01 A3012 RMK A01 T00740010  RH  064%=      5-min Rain = 0
KCH1 210209Z 16005KT 08/01 A3012 RMK A01 T00750010  RH  063%=      5-min Rain = 0
KCH1 210210Z 16006KT 08/01 A3012 RMK A01 T00760010  RH  063%=      5-min Rain = 0
KCH1 210211Z 16006KT 08/01 A3012 RMK A01 T00770010  RH  062%=      5-min Rain = 0
KCH1 210212Z 16006KT 08/01 A3012 RMK A01 T00780010  RH  062%=      5-min Rain = 0
KCH1 210213Z 16005KT 08/01 A3012 RMK A01 T00790011  RH  062%=      5-min Rain = 0
KCH1 210214Z 17006KT 08/01 A3012 RMK A01 T00800011  RH  062%=      5-min Rain = 0
KCH1 210215Z 17006KT 08/01 A3012 RMK A01 T00800011  RH  062%=      5-min Rain = 0
KCH1 210216Z 17006KT 08/01 A3012 RMK A01 T00800011  RH  061%=      5-min Rain = 0
KCH1 210217Z 17006KT 08/01 A3012 RMK A01 T00810010  RH  061%=      5-min Rain = 0
KCH1 210218Z 17005KT 08/01 A3012 RMK A01 T00810010  RH  061%=      5-min Rain = 0
KCH1 210219Z 17005KT 08/01 A3012 RMK A01 T00810010  RH  061%=      5-min Rain = 0
KCH1 210220Z 17005KT 08/01 A3012 RMK A01 T00810010  RH  061%=      5-min Rain = 0
KCH1 210221Z 17005KT 08/01 A3012 RMK A01 T00810010  RH  061%=      5-min Rain = 0
KCH1 210222Z 18005KT 08/01 A3012 RMK A01 T00810011  RH  061%=      5-min Rain = 0
KCH1 210223Z 18005KT 08/01 A3012 RMK A01 T00800011  RH  062%=      5-min Rain = 0
KCH1 210224Z 18005KT 08/01 A3012 RMK A01 T00800011  RH  062%=      5-min Rain = 0
KCH1 210225Z 18005KT 08/01 A3012 RMK A01 T00790011  RH  062%=      5-min Rain = 0
KCH1 210226Z 18005KT 08/01 A3012 RMK A01 T00790011  RH  062%=      5-min Rain = 0
KCH1 210227Z 18005KT 08/01 A3012 RMK A01 T00790011  RH  062%=      5-min Rain = 0
KCH1 210228Z 18006KT 08/01 A3012 RMK A01 T00790011  RH  062%=      5-min Rain = 0
KCH1 210229Z 18006KT 08/01 A3012 RMK A01 T00790011  RH  062%=      5-min Rain = 0
KCH1 210230Z 18006KT 08/01 A3012 RMK A01 T00790012  RH  063%=      5-min Rain = 0
KCH1 210231Z 18006KT 08/01 A3012 RMK A01 T00780012  RH  063%=      5-min Rain = 0
KCH1 210232Z 18006KT 08/01 A3012 RMK A01 T00780012  RH  063%=      5-min Rain = 0
KCH1 210233Z 18006KT 08/01 A3012 RMK A01 T00770011  RH  063%=      5-min Rain = 0
KCH1 210234Z 18006KT 08/01 A3012 RMK A01 T00780011  RH  063%=      5-min Rain = 0
KCH1 210235Z 18006KT 08/01 A3012 RMK A01 T00780011  RH  063%=      5-min Rain = 0
KCH1 210236Z 18006KT 08/01 A3012 RMK A01 T00780011  RH  063%=      5-min Rain = 0
KCH1 210237Z 18006KT 08/01 A3012 RMK A01 T00770011  RH  063%=      5-min Rain = 0
KCH1 210238Z 19005KT 08/01 A3012 RMK A01 T00770011  RH  063%=      5-min Rain = 0
KCH1 210239Z 19005KT 08/01 A3012 RMK A01 T00770011  RH  063%=      5-min Rain = 0
KCH1 210240Z 19005KT 08/01 A3012 RMK A01 T00770011  RH  063%=      5-min Rain = 0
KCH1 210241Z 19005KT 08/01 A3012 RMK A01 T00770011  RH  063%=      5-min Rain = 0
KCH1 210242Z 19005KT 08/01 A3012 RMK A01 T00770011  RH  063%=      5-min Rain = 0
KCH1 210243Z 19005KT 08/01 A3012 RMK A01 T00770010  RH  063%=      5-min Rain = 0
KCH1 210244Z 19005KT 08/01 A3012 RMK A01 T00770010  RH  063%=      5-min Rain = 0
KCH1 210245Z 19005KT 08/01 A3012 RMK A01 T00770010  RH  063%=      5-min Rain = 0
KCH1 210246Z 18005KT 08/01 A3011 RMK A01 T00770011  RH  063%=      5-min Rain = 0
KCH1 210247Z 19005KT 08/01 A3011 RMK A01 T00760010  RH  063%=      5-min Rain = 0
KCH1 210248Z 18005KT 08/01 A3011 RMK A01 T00750010  RH  063%=      5-min Rain = 0
KCH1 210249Z 18004KT 08/01 A3011 RMK A01 T00750010  RH  063%=      5-min Rain = 0
KCH1 210250Z 17004KT 07/01 A3011 RMK A01 T00730010  RH  064%=      5-min Rain = 0
KCH1 210251Z 17004KT 07/01 A3011 RMK A01 T00710009  RH  064%=      5-min Rain = 0
KCH1 210252Z 17004KT 07/01 A3011 RMK A01 T00700009  RH  065%=      5-min Rain = 0
KCH1 210253Z 17004KT 07/01 A3011 RMK A01 T00680009  RH  066%=      5-min Rain = 0
KCH1 210254Z 17004KT 07/01 A3011 RMK A01 T00670009  RH  066%=      5-min Rain = 0
KCH1 210255Z 17004KT 07/01 A3011 RMK A01 T00660008  RH  066%=      5-min Rain = 0
KCH1 210256Z 17004KT 07/01 A3011 RMK A01 T00660008  RH  067%=      5-min Rain = 0
KCH1 210257Z 17004KT 07/01 A3011 RMK A01 T00650008  RH  067%=      5-min Rain = 0
KCH1 210258Z 17005KT 07/01 A3011 RMK A01 T00650008  RH  067%=      5-min Rain = 0
KCH1 210259Z 17004KT 07/01 A3011 RMK A01 T00650008  RH  067%=      5-min Rain = 0
KCH1 210300Z 17005KT 07/01 A3011 RMK A01 T00650008  RH  067%=      5-min Rain = 0
KCH1 210301Z 17005KT 07/01 A3011 RMK A01 T00660008  RH  067%=      5-min Rain = 0
KCH1 210302Z 17005KT 07/01 A3011 RMK A01 T00660008  RH  067%=      5-min Rain = 0
KCH1 210303Z 17004KT 07/01 A3011 RMK A01 T00660009  RH  067%=      5-min Rain = 0
KCH1 210304Z 17005KT 07/01 A3011 RMK A01 T00660008  RH  067%=      5-min Rain = 0
KCH1 210305Z 17005KT 07/01 A3011 RMK A01 T00660008  RH  067%=      5-min Rain = 0
KCH1 210306Z 17005KT 07/01 A3011 RMK A01 T00660008  RH  066%=      5-min Rain = 0
KCH1 210307Z 17005KT 07/01 A3011 RMK A01 T00670008  RH  066%=      5-min Rain = 0
KCH1 210308Z 17005KT 07/01 A3011 RMK A01 T00680008  RH  066%=      5-min Rain = 0
KCH1 210309Z 17006KT 07/01 A3011 RMK A01 T00690008  RH  065%=      5-min Rain = 0
KCH1 210310Z 17006KT 07/01 A3011 RMK A01 T00700008  RH  065%=      5-min Rain = 0
KCH1 210311Z 17006KT 07/01 A3011 RMK A01 T00710008  RH  064%=      5-min Rain = 0
KCH1 210312Z 17005KT 07/01 A3011 RMK A01 T00730008  RH  063%=      5-min Rain = 0
KCH1 210313Z 17006KT 07/01 A3011 RMK A01 T00740008  RH  063%=      5-min Rain = 0
KCH1 210314Z 17006KT 07/01 A3011 RMK A01 T00740008  RH  063%=      5-min Rain = 0
KCH1 210315Z 17006KT 07/01 A3011 RMK A01 T00740008  RH  063%=      5-min Rain = 0
KCH1 210316Z 17006KT 07/01 A301 RMK A01 T00740008  RH  063%=      5-min Rain = 0
KCH1 210317Z 17005KT 07/01 A301 RMK A01 T00740008  RH  063%=      5-min Rain = 0
KCH1 210318Z 17005KT 07/01 A301 RMK A01 T00720008  RH  064%=      5-min Rain = 0
KCH1 210319Z 17005KT 07/01 A301 RMK A01 T00700007  RH  064%=      5-min Rain = 0
KCH1 210320Z 17005KT 07/01 A301 RMK A01 T00690007  RH  065%=      5-min Rain = 0
KCH1 210321Z 16005KT 07/01 A301 RMK A01 T00680007  RH  065%=      5-min Rain = 0
KCH1 210322Z 17005KT 07/01 A301 RMK A01 T00670007  RH  065%=      5-min Rain = 0
KCH1 210323Z 17005KT 07/01 A301 RMK A01 T00660006  RH  066%=      5-min Rain = 0
KCH1 210324Z 17004KT 07/01 A301 RMK A01 T00650007  RH  066%=      5-min Rain = 0
KCH1 210325Z 16004KT 07/01 A301 RMK A01 T00650006  RH  066%=      5-min Rain = 0
KCH1 210326Z 17004KT 07/01 A301 RMK A01 T00650006  RH  066%=      5-min Rain = 0
KCH1 210327Z 16004KT 07/01 A301 RMK A01 T00650006  RH  066%=      5-min Rain = 0
KCH1 210328Z 17005KT 07/01 A301 RMK A01 T00650006  RH  066%=      5-min Rain = 0
KCH1 210329Z 17004KT 07/01 A301 RMK A01 T00660006  RH  066%=      5-min Rain = 0
KCH1 210330Z 17004KT 07/01 A301 RMK A01 T00660006  RH  066%=      5-min Rain = 0
KCH1 210331Z 17004KT 07/01 A301 RMK A01 T00660007  RH  066%=      5-min Rain = 0
KCH1 210332Z 17005KT 07/01 A301 RMK A01 T00660006  RH  066%=      5-min Rain = 0
KCH1 210333Z 17005KT 07/01 A301 RMK A01 T00660006  RH  066%=      5-min Rain = 0
KCH1 210334Z 18005KT 07/01 A301 RMK A01 T00670007  RH  065%=      5-min Rain = 0
KCH1 210335Z 17005KT 07/01 A301 RMK A01 T00670006  RH  065%=      5-min Rain = 0
KCH1 210336Z 18005KT 07/01 A301 RMK A01 T00680007  RH  065%=      5-min Rain = 0
KCH1 210337Z 18005KT 07/01 A301 RMK A01 T00680007  RH  065%=      5-min Rain = 0
KCH1 210338Z 18005KT 07/01 A301 RMK A01 T00690007  RH  065%=      5-min Rain = 0
KCH1 210339Z 17005KT 07/01 A3009 RMK A01 T00690007  RH  064%=      5-min Rain = 0
KCH1 210340Z 17004KT 07/01 A3009 RMK A01 T00700007  RH  064%=      5-min Rain = 0
KCH1 210341Z 17005KT 07/01 A3009 RMK A01 T00700007  RH  064%=      5-min Rain = 0
KCH1 210342Z 18006KT 07/01 A3009 RMK A01 T00700006  RH  064%=      5-min Rain = 0
KCH1 210343Z 17005KT 07/01 A3009 RMK A01 T00700007  RH  064%=      5-min Rain = 0
KCH1 210344Z 17005KT 07/01 A3009 RMK A01 T00710007  RH  064%=      5-min Rain = 0
KCH1 210345Z 17006KT 07/01 A3009 RMK A01 T00720007  RH  063%=      5-min Rain = 0
KCH1 210346Z 17006KT 07/01 A3009 RMK A01 T00730007  RH  063%=      5-min Rain = 0
KCH1 210347Z 17006KT 07/01 A3009 RMK A01 T00730007  RH  063%=      5-min Rain = 0
KCH1 210348Z 17005KT 07/01 A3009 RMK A01 T00730007  RH  063%=      5-min Rain = 0
KCH1 210349Z 17005KT 07/01 A3009 RMK A01 T00730007  RH  063%=      5-min Rain = 0
KCH1 210350Z 17006KT 07/01 A3009 RMK A01 T00730007  RH  063%=      5-min Rain = 0
KCH1 210351Z 17006KT 07/01 A3009 RMK A01 T00730007  RH  063%=      5-min Rain = 0
KCH1 210352Z 17005KT 07/01 A3009 RMK A01 T00740007  RH  063%=      5-min Rain = 0
KCH1 210353Z 17005KT 07/01 A3009 RMK A01 T00730007  RH  063%=      5-min Rain = 0
KCH1 210354Z 17005KT 07/01 A3009 RMK A01 T00730008  RH  063%=      5-min Rain = 0
KCH1 210355Z 17005KT 07/01 A3009 RMK A01 T00730007  RH  063%=      5-min Rain = 0
KCH1 210356Z 17005KT 07/01 A3009 RMK A01 T00730007  RH  063%=      5-min Rain = 0
KCH1 210357Z 17005KT 07/01 A3009 RMK A01 T00740007  RH  062%=      5-min Rain = 0
KCH1 210358Z 17005KT 07/01 A3009 RMK A01 T00740006  RH  062%=      5-min Rain = 0
KCH1 210359Z 17005KT 07/01 A3009 RMK A01 T00740007  RH  062%=      5-min Rain = 0
KCH1 210400Z 16005KT 07/01 A3009 RMK A01 T00740007  RH  062%=      5-min Rain = 0
KCH1 210401Z 16004KT 07/01 A3009 RMK A01 T00740007  RH  062%=      5-min Rain = 0
KCH1 210402Z 16005KT 07/01 A3009 RMK A01 T00740007  RH  062%=      5-min Rain = 0
KCH1 210403Z 16004KT 07/01 A3009 RMK A01 T00730007  RH  063%=      5-min Rain = 0
KCH1 210404Z 16004KT 07/01 A3009 RMK A01 T00720007  RH  063%=      5-min Rain = 0
KCH1 210405Z 16004KT 07/01 A3009 RMK A01 T00700006  RH  064%=      5-min Rain = 0
KCH1 210406Z 16004KT 07/01 A3009 RMK A01 T00680006  RH  064%=      5-min Rain = 0
KCH1 210407Z 16004KT 07/01 A3009 RMK A01 T00680006  RH  065%=      5-min Rain = 0
KCH1 210408Z 16004KT 07/01 A3009 RMK A01 T00670006  RH  065%=      5-min Rain = 0
KCH1 210409Z 16004KT 07/01 A3009 RMK A01 T00670006  RH  065%=      5-min Rain = 0
KCH1 210410Z 16005KT 07/01 A3009 RMK A01 T00670006  RH  065%=      5-min Rain = 0
KCH1 210411Z 16005KT 07/01 A3009 RMK A01 T00680006  RH  065%=      5-min Rain = 0
KCH1 210412Z 16005KT 07/01 A3009 RMK A01 T00690006  RH  064%=      5-min Rain = 0
KCH1 210413Z 16005KT 07/01 A3009 RMK A01 T00690007  RH  064%=      5-min Rain = 0
KCH1 210414Z 16005KT 07/01 A3009 RMK A01 T00690007  RH  064%=      5-min Rain = 0
KCH1 210415Z 16004KT 07/01 A3009 RMK A01 T00690007  RH  064%=      5-min Rain = 0
KCH1 210416Z 16004KT 07/01 A3009 RMK A01 T00690007  RH  065%=      5-min Rain = 0
KCH1 210417Z 16004KT 07/01 A3009 RMK A01 T00690007  RH  065%=      5-min Rain = 0
KCH1 210418Z 16004KT 07/01 A3009 RMK A01 T00680007  RH  065%=      5-min Rain = 0
KCH1 210419Z 16005KT 07/01 A3009 RMK A01 T00670006  RH  065%=      5-min Rain = 0
KCH1 210420Z 16005KT 07/01 A3009 RMK A01 T00680006  RH  065%=      5-min Rain = 0
KCH1 210421Z 16005KT 07/01 A3009 RMK A01 T00680006  RH  065%=      5-min Rain = 0
KCH1 210422Z 16004KT 07/01 A3009 RMK A01 T00680006  RH  064%=      5-min Rain = 0
KCH1 210423Z 16004KT 07/01 A3009 RMK A01 T00690006  RH  064%=      5-min Rain = 0
KCH1 210424Z 16005KT 07/01 A3009 RMK A01 T00690006  RH  064%=      5-min Rain = 0
KCH1 210425Z 16005KT 07/01 A3009 RMK A01 T00690006  RH  064%=      5-min Rain = 0
KCH1 210426Z 16005KT 07/01 A3009 RMK A01 T00690006  RH  064%=      5-min Rain = 0
KCH1 210427Z 16005KT 07/01 A3009 RMK A01 T00690006  RH  064%=      5-min Rain = 0
KCH1 210428Z 16005KT 07/01 A3009 RMK A01 T00690006  RH  064%=      5-min Rain = 0
KCH1 210429Z 16005KT 07/01 A3009 RMK A01 T00690006  RH  064%=      5-min Rain = 0
KCH1 210430Z 16005KT 07/01 A3009 RMK A01 T00690007  RH  065%=      5-min Rain = 0
KCH1 210431Z 16006KT 07/01 A3009 RMK A01 T00680006  RH  064%=      5-min Rain = 0
KCH1 210432Z 17006KT 07/01 A3009 RMK A01 T00690006  RH  064%=      5-min Rain = 0
KCH1 210433Z 17005KT 07/01 A3009 RMK A01 T00690006  RH  064%=      5-min Rain = 0
KCH1 210434Z 17005KT 07/01 A3009 RMK A01 T00690005  RH  064%=      5-min Rain = 0
KCH1 210435Z 17006KT 07/01 A3009 RMK A01 T00690005  RH  064%=      5-min Rain = 0
KCH1 210436Z 17005KT 07/01 A3009 RMK A01 T00690005  RH  064%=      5-min Rain = 0
KCH1 210437Z 17005KT 07/01 A3009 RMK A01 T00700006  RH  064%=      5-min Rain = 0
KCH1 210438Z 17005KT 07/01 A3009 RMK A01 T00690006  RH  064%=      5-min Rain = 0
KCH1 210439Z 17006KT 07/01 A3009 RMK A01 T00680006  RH  064%=      5-min Rain = 0
KCH1 210440Z 17006KT 07/01 A3009 RMK A01 T00680006  RH  064%=      5-min Rain = 0
KCH1 210441Z 17006KT 07/01 A3009 RMK A01 T00690005  RH  064%=      5-min Rain = 0
KCH1 210442Z 16006KT 07/01 A3009 RMK A01 T00690005  RH  063%=      5-min Rain = 0
KCH1 210443Z 17006KT 07/01 A3009 RMK A01 T00710005  RH  063%=      5-min Rain = 0
KCH1 210444Z 17006KT 07/01 A3009 RMK A01 T00710005  RH  063%=      5-min Rain = 0
KCH1 210445Z 17006KT 07/01 A3009 RMK A01 T00710005  RH  063%=      5-min Rain = 0
KCH1 210446Z 17006KT 07/01 A3009 RMK A01 T00710005  RH  063%=      5-min Rain = 0
KCH1 210447Z 17006KT 07/01 A3009 RMK A01 T00710005  RH  063%=      5-min Rain = 0
KCH1 210448Z 18005KT 07/01 A3009 RMK A01 T00710005  RH  063%=      5-min Rain = 0
KCH1 210449Z 17006KT 07/01 A3009 RMK A01 T00710005  RH  063%=      5-min Rain = 0
KCH1 210450Z 18006KT 07/01 A3009 RMK A01 T00700005  RH  063%=      5-min Rain = 0
KCH1 210451Z 17006KT 07/01 A3009 RMK A01 T00700005  RH  063%=      5-min Rain = 0
KCH1 210452Z 18006KT 07/00 A3009 RMK A01 T00700004  RH  063%=      5-min Rain = 0
KCH1 210453Z 17006KT 07/00 A3009 RMK A01 T00700004  RH  063%=      5-min Rain = 0
KCH1 210454Z 17005KT 07/01 A3009 RMK A01 T00700005  RH  063%=      5-min Rain = 0
KCH1 210455Z 17005KT 07/01 A3009 RMK A01 T00700005  RH  063%=      5-min Rain = 0
KCH1 210456Z 17006KT 07/00 A3009 RMK A01 T00690004  RH  063%=      5-min Rain = 0
KCH1 210457Z 17005KT 07/01 A3009 RMK A01 T00690005  RH  063%=      5-min Rain = 0
KCH1 210458Z 17006KT 07/00 A3009 RMK A01 T00690004  RH  063%=      5-min Rain = 0
KCH1 210459Z 16006KT 07/00 A3009 RMK A01 T00690004  RH  063%=      5-min Rain = 0
KCH1 210500Z 16006KT 07/00 A3009 RMK A01 T00690004  RH  064%=      5-min Rain = 0
KCH1 210501Z 16006KT 07/01 A3009 RMK A01 T00680005  RH  064%=      5-min Rain = 0
KCH1 210502Z 17006KT 07/00 A3009 RMK A01 T00670004  RH  064%=      5-min Rain = 0
KCH1 210503Z 16006KT 07/00 A3009 RMK A01 T00670004  RH  064%=      5-min Rain = 0
KCH1 210504Z 16006KT 07/00 A3009 RMK A01 T00670004  RH  064%=      5-min Rain = 0
KCH1 210505Z 16006KT 07/01 A3009 RMK A01 T00670005  RH  064%=      5-min Rain = 0
KCH1 210506Z 16005KT 07/01 A3009 RMK A01 T00670005  RH  064%=      5-min Rain = 0
KCH1 210507Z 16006KT 07/01 A3009 RMK A01 T00670005  RH  064%=      5-min Rain = 0
KCH1 210508Z 16007KT 07/00 A3009 RMK A01 T00670004  RH  064%=      5-min Rain = 0
KCH1 210509Z 16006KT 07/00 A3009 RMK A01 T00670004  RH  064%=      5-min Rain = 0
KCH1 210510Z 16005KT 07/00 A3009 RMK A01 T00670004  RH  064%=      5-min Rain = 0
KCH1 210511Z 16006KT 07/00 A3009 RMK A01 T00670004  RH  064%=      5-min Rain = 0
KCH1 210512Z 16006KT 07/00 A3009 RMK A01 T00670004  RH  064%=      5-min Rain = 0
KCH1 210513Z 15005KT 07/01 A3009 RMK A01 T00680005  RH  064%=      5-min Rain = 0
KCH1 210514Z 15004KT 07/01 A3009 RMK A01 T00670005  RH  064%=      5-min Rain = 0
KCH1 210515Z 16004KT 07/01 A3009 RMK A01 T00660005  RH  065%=      5-min Rain = 0
KCH1 210516Z 15006KT 07/01 A3009 RMK A01 T00660005  RH  065%=      5-min Rain = 0
KCH1 210517Z 15006KT 07/00 A3009 RMK A01 T00660004  RH  065%=      5-min Rain = 0
KCH1 210518Z 15006KT 07/00 A3009 RMK A01 T00660004  RH  064%=      5-min Rain = 0
KCH1 210519Z 16006KT 07/00 A3009 RMK A01 T00670004  RH  064%=      5-min Rain = 0
KCH1 210520Z 16005KT 07/00 A3009 RMK A01 T00660004  RH  064%=      5-min Rain = 0
KCH1 210521Z 16005KT 07/00 A3009 RMK A01 T00660004  RH  064%=      5-min Rain = 0
KCH1 210522Z 16006KT 07/00 A3009 RMK A01 T00660004  RH  064%=      5-min Rain = 0
KCH1 210523Z 16005KT 07/00 A3009 RMK A01 T00660004  RH  065%=      5-min Rain = 0
KCH1 210524Z 15005KT 07/00 A3009 RMK A01 T00660004  RH  064%=      5-min Rain = 0
KCH1 210525Z 16004KT 07/00 A3009 RMK A01 T00660004  RH  064%=      5-min Rain = 0
KCH1 210526Z 16006KT 07/00 A3009 RMK A01 T00660004  RH  065%=      5-min Rain = 0
KCH1 210527Z 16006KT 07/00 A3009 RMK A01 T00650004  RH  065%=      5-min Rain = 0
KCH1 210528Z 16007KT 07/00 A3009 RMK A01 T00650004  RH  065%=      5-min Rain = 0
KCH1 210529Z 16005KT 07/00 A3009 RMK A01 T00650004  RH  065%=      5-min Rain = 0
KCH1 210530Z 17006KT 07/00 A3009 RMK A01 T00650004  RH  065%=      5-min Rain = 0
KCH1 210531Z 16006KT 07/00 A3009 RMK A01 T00650004  RH  065%=      5-min Rain = 0
KCH1 210532Z 16006KT 06/00 A3009 RMK A01 T00640004  RH  065%=      5-min Rain = 0
KCH1 210533Z 16007KT 06/00 A3009 RMK A01 T00640004  RH  065%=      5-min Rain = 0
KCH1 210534Z 16007KT 06/00 A3008 RMK A01 T00640004  RH  065%=      5-min Rain = 0
KCH1 210535Z 17007KT 06/00 A3008 RMK A01 T00630003  RH  065%=      5-min Rain = 0
KCH1 210536Z 16007KT 06/00 A3008 RMK A01 T00640003  RH  065%=      5-min Rain = 0
KCH1 210537Z 17007KT 06/00 A3008 RMK A01 T00640003  RH  065%=      5-min Rain = 0
KCH1 210538Z 16007KT 06/00 A3008 RMK A01 T00640003  RH  065%=      5-min Rain = 0
KCH1 210539Z 17008KT 06/00 A3008 RMK A01 T00640003  RH  065%=      5-min Rain = 0
KCH1 210540Z 17008KT 06/00 A3008 RMK A01 T00640003  RH  065%=      5-min Rain = 0
KCH1 210541Z 17008KT 06/00 A3008 RMK A01 T00640003  RH  065%=      5-min Rain = 0
KCH1 210542Z 17007KT 06/00 A3008 RMK A01 T00640003  RH  065%=      5-min Rain = 0
KCH1 210543Z 16007KT 06/00 A3008 RMK A01 T00630003  RH  065%=      5-min Rain = 0
KCH1 210544Z 17007KT 06/00 A3008 RMK A01 T00630003  RH  065%=      5-min Rain = 0
KCH1 210545Z 17007KT 06/00 A3008 RMK A01 T00630003  RH  065%=      5-min Rain = 0
KCH1 210546Z 16008KT 06/00 A3008 RMK A01 T00630003  RH  065%=      5-min Rain = 0
KCH1 210547Z 16007KT 06/00 A3008 RMK A01 T00630003  RH  065%=      5-min Rain = 0
KCH1 210548Z 17007KT 06/00 A3009 RMK A01 T00630003  RH  065%=      5-min Rain = 0
KCH1 210549Z 16006KT 06/00 A3009 RMK A01 T00620002  RH  065%=      5-min Rain = 0
KCH1 210550Z 16006KT 06/00 A3009 RMK A01 T00620003  RH  065%=      5-min Rain = 0
KCH1 210551Z 16006KT 06/00 A3009 RMK A01 T00620003  RH  066%=      5-min Rain = 0
KCH1 210552Z 16005KT 06/00 A3009 RMK A01 T00620002  RH  066%=      5-min Rain = 0
KCH1 210553Z 16006KT 06/00 A3009 RMK A01 T00610002  RH  066%=      5-min Rain = 0
KCH1 210554Z 16005KT 06/00 A3009 RMK A01 T00600002  RH  066%=      5-min Rain = 0
KCH1 210555Z 16006KT 06/00 A3009 RMK A01 T00600002  RH  066%=      5-min Rain = 0
KCH1 210556Z 16006KT 06/00 A3009 RMK A01 T00590002  RH  067%=      5-min Rain = 0
KCH1 210557Z 16006KT 06/00 A3009 RMK A01 T00590002  RH  067%=      5-min Rain = 0
KCH1 210558Z 16006KT 06/00 A3009 RMK A01 T00590002  RH  067%=      5-min Rain = 0
KCH1 210559Z 15006KT 06/00 A3009 RMK A01 T00590002  RH  067%=      5-min Rain = 0

Page generated in 0.1343 seconds.